                ,  0.284,  0.381,  0.478,  0.575,  0.672,  0.769,  0.866,  0.963,  1.060,  1.157,  1.254,  1.351,  1.448,  1.545,  1.642,  1.740,  1.837,  1.934,  2.031,  2.128,  2.225,  2.322,  2.419,  2.516,  2.613,  2.710,  2.807,  2.904,  3.001,  3.098,  3.195,  3.292,  3.389,  3.486,  3.583,  3.680,  3.777,  3.874,  3.971,  4.068,  4.165,  4.262,  4.359,  4.456,  4.553,  4.650,  4.747,  4.844,  4.941,  5.039,  5.136,  5.233,  5.330,  5.427,  5.524,  5.621,  5.718,  5.815,  5.912,  6.009,  6.106,  6.203,  6.300,  6.397,  6.494,  6.591,  6.688,  6.785,  6.882,  6.979,  7.076,  7.173,  7.270,  7.367,  7.464,  7.561,  7.658,  7.755,  7.852,  7.949,  8.046,  8.143,  8.240,  8.338,  8.435,  8.532,  8.629,  8.726,  8.823,  8.920,  9.017,  9.114,  9.211,  9.308,  9.405,  9.502,  9.599,  9.696
2011/02/22 00:00,  999.0,  999.0,  999.0,    5.9,    6.8,    8.3,    8.5,    8.5,    7.3,    6.4,    6.5,    7.3,    7.8,    7.2,    4.8,    3.2,    1.8,    0.5,    2.1,    0.3,   -0.1,   -0.5,   -0.2,    1.1,    2.2,    1.5,    1.5,    1.1,   -0.3,   -1.2,   -0.2,    1.0,   -0.8,   -1.9,   -2.0,  999.0,  999.0,  999.0,   -8.5,  999.0,  999.0,  999.0,  999.0,  999.0,   -5.7,   -5.7,   -5.0,   -5.5,   -5.7,   -5.2,   -4.6,   -4.2,   -4.0,   -4.1,   -4.3,   -4.8,   -5.1,   -4.6,   -4.3,   -4.6,   -4.9,   -5.0,   -4.9,   -5.0,   -5.2,   -6.1,   -7.0,   -7.0,   -7.0,   -6.9,   -7.0,   -7.4,   -7.7,   -7.8,   -8.1,   -8.3,   -8.1,   -7.7,   -7.0,   -6.6,   -6.0,   -5.5,   -5.3,   -4.9,   -4.9,   -5.0,   -5.1,   -4.9,   -4.8,   -4.7,   -4.7,   -4.6,   -4.5,   -3.9,   -3.2,   -3.1,   -2.7,   -2.8
2011/02/22 00:10,    4.5,    4.7,    4.9,    4.3,    5.5,    6.6,    6.4,    5.9,    5.5,    3.8,    3.5,    1.9,    1.4,    2.3,    1.7,    1.0,    1.1,    0.7,    1.1,    0.1,   -0.3,   -0.8,   -0.1,    1.0,    1.5,    1.4,    1.0,    1.7,    1.7,    2.7,    2.1,    1.7,    1.7,    1.2,    0.6,  999.0,  999.0,  999.0,   -2.6,  999.0,  999.0,   -5.7,   -6.9,   -8.0,  999.0,   -7.8,   -6.9,   -5.7,   -5.2,   -5.1,   -4.8,   -4.9,   -4.9,   -4.7,   -4.6,   -5.1,   -5.3,   -5.5,   -5.5,   -5.4,   -5.3,   -5.4,   -5.6,   -5.7,   -6.1,   -6.9,   -8.0,   -8.5,   -9.1,   -9.2,   -9.2,   -9.3,   -9.4,   -9.3,   -8.9,   -8.8,   -8.5,   -8.5,   -8.3,   -7.7,   -7.0,   -6.7,   -6.3,   -5.9,   -5.7,   -5.3,   -5.2,   -5.1,   -5.0,   -5.1,   -5.1,   -5.1,   -4.8,   -4.6,   -4.1,   -3.6,   -3.1,   -3.0
2011/02/22 00:20,  999.0,  999.0,  999.0,  999.0,  999.0,    4.7,  999.0,    6.6,    4.7,  999.0,    6.2,    6.3,    6.5,    5.1,    3.7,    1.7,    0.6,    0.8,   -0.5,   -0.5,   -0.1,   -1.0,   -2.1,   -1.3,    1.2,    0.5,   -0.3,   -0.7,   -0.5,   -0.0,    0.0,   -0.4,   -1.2,   -2.5,   -2.7,   -5.4,  999.0,  999.0,  999.0,  999.0,   -6.0,   -6.4,  999.0,  999.0,  999.0,   -7.8,   -6.8,   -6.8,   -6.7,   -6.2,   -5.6,   -4.8,   -4.3,   -4.5,   -4.4,   -4.5,   -4.8,   -5.2,   -5.4,   -5.7,   -6.1,   -6.5,   -6.9,   -7.6,   -8.0,   -8.3,   -8.6,   -8.7,   -8.7,   -8.7,   -8.4,   -8.0,   -8.0,   -8.0,   -8.2,   -8.2,   -8.3,   -8.5,   -8.6,   -8.7,   -8.2,   -7.1,   -6.4,   -6.0,   -5.6,   -5.2,   -4.8,   -4.7,   -4.6,   -4.5,   -4.6,   -4.7,   -4.8,   -4.6,   -4.2,   -3.6,   -3.2,   -3.1
2011/02/22 00:30,    3.9,    4.6,    4.3,    4.5,    5.5,    6.5,    7.4,    7.0,    6.9,    6.1,    5.4,    4.8,    4.5,    4.4,    2.8,    3.4,    2.2,    2.1,    1.6,    1.3,    1.5,    0.8,    1.8,    1.0,    1.5,    2.5,    0.7,    0.5,   -0.0,    0.0,    1.0,    0.1,   -0.9,   -2.2,   -2.7,   -4.5,   -5.2,   -5.1,   -6.3,   -7.3,   -7.1,   -7.0,  999.0,   -8.4,   -7.8,   -9.6,   -9.8,   -9.7,   -8.5,   -8.2,   -8.0,   -7.9,   -7.3,   -6.0,   -5.2,   -4.9,   -4.7,   -5.2,   -6.1,   -7.1,   -8.1,   -8.9,   -8.6,   -8.5,   -8.0,   -7.3,   -7.2,   -7.2,   -7.5,   -7.7,   -7.8,   -7.7,   -7.6,   -7.9,   -8.6,   -9.0,   -9.3,   -9.7,   -9.8,   -9.7,   -9.2,   -8.2,   -7.2,   -7.0,   -6.9,   -6.5,   -6.2,   -6.3,   -6.2,   -5.9,   -5.4,   -5.2,   -5.0,   -4.7,   -4.0,   -3.8,   -3.7,   -3.6
2011/02/22 00:40,    3.9,    4.4,    3.7,    4.4,    6.0,    6.7,    7.0,    6.2,    5.9,    5.0,    4.5,    2.4,    1.3,    1.1,    1.0,    0.7,    0.7,    0.3,   -0.3,   -0.6,   -1.0,   -1.1,   -0.4,   -0.5,   -0.8,   -0.4,    0.1,   -1.1,   -0.9,   -1.6,   -1.3,   -2.3,  999.0,  999.0,  999.0,   -4.3,   -5.3,  999.0,   -3.3,   -3.9,   -3.8,  999.0,  999.0,  999.0,   -8.2,   -8.1,   -7.9,   -8.5,   -8.6,   -8.2,   -7.7,   -7.4,   -6.9,   -6.5,   -5.8,   -4.4,   -4.2,   -5.3,   -6.7,   -7.8,   -8.2,   -8.4,   -8.3,   -7.9,   -7.5,   -7.2,   -7.2,   -7.3,   -6.7,   -6.0,   -5.7,   -6.2,   -6.4,   -7.4,   -8.1,   -8.7,   -8.9,   -9.2,   -9.6,   -9.9,   -9.7,   -9.1,   -7.9,   -6.7,   -6.5,   -6.2,   -6.1,   -6.3,   -6.4,   -6.4,   -6.2,   -5.8,   -5.6,   -5.6,   -5.5,   -5.2,   -5.2,   -5.1
2011/02/22 00:50,    2.8,    4.5,    5.3,    5.2,    5.4,    6.2,    5.9,    5.2,    5.3,    4.7,    4.1,    3.2,    2.1,    1.4,    1.0,    0.1,   -0.3,    0.4,    0.5,   -0.0,    0.7,   -0.5,   -0.7,   -0.3,   -0.4,    0.1,    0.5,    0.8,    1.5,    2.1,    1.5,    0.1,   -0.7,   -0.0,   -0.1,   -1.5,   -2.8,   -4.2,   -4.8,   -5.0,   -5.0,   -4.5,  999.0,  999.0,  999.0,   -5.5,   -5.4,   -6.5,   -7.0,   -7.4,   -7.7,   -8.1,   -7.7,   -7.5,   -7.5,   -6.8,   -6.2,   -6.7,   -7.4,   -7.5,   -7.7,   -8.6,   -9.7,   -9.5,   -9.2,   -8.5,   -7.9,   -7.9,   -7.6,   -6.5,   -5.2,   -4.2,   -4.2,   -5.0,   -6.2,   -7.2,   -8.0,   -8.9,   -9.6,  -10.0,   -9.8,   -9.4,   -9.1,   -8.4,   -6.9,   -6.3,   -6.3,   -6.6,   -6.7,   -7.0,   -7.5,   -7.8,   -7.8,   -7.6,   -7.5,   -7.4,   -7.1,   -7.0
2011/02/22 01:00,    6.5,    5.9,    5.5,    5.7,    6.2,    6.4,    6.5,    6.9,    7.0,    6.0,    5.5,    4.7,    4.1,    2.8,    1.5,    1.1,    1.2,    0.7,    0.9,    0.5,    0.1,    0.0,    0.4,    0.2,    0.1,    0.6,  999.0,  999.0,  999.0,  999.0,  999.0,    1.5,    6.0,    6.1,    6.4,    5.3,    3.5,    4.2,  999.0,  999.0,  999.0,  999.0,  999.0,  999.0,  999.0,  999.0,   -4.7,   -5.3,   -5.9,   -6.3,   -6.7,   -7.2,   -7.5,   -7.9,   -7.8,   -7.4,   -6.9,   -6.6,  999.0,  999.0,   -7.5,   -7.9,   -9.0,   -9.8,   -9.5,   -9.1,   -8.5,   -7.6,   -7.9,   -8.1,   -7.9,   -6.0,  999.0,  999.0,   -5.8,   -7.1,   -8.3,   -9.4,  -10.0,   -9.7,   -9.2,   -8.6,   -8.4,   -8.1,   -7.3,   -6.4,   -6.0,   -6.1,   -6.6,   -7.8,   -8.9,   -9.4,   -9.6,   -9.2,   -9.3,   -9.4,   -9.3,   -8.9
2011/02/22 01:10,    4.3,    5.4,    5.3,    5.8,    5.8,    8.8,    8.7,    9.0,    9.0,    7.1,    6.6,    5.0,    5.9,    5.1,    1.6,    0.5,    0.6,    0.3,    0.3,    0.8,    0.6,    0.3,    0.7,    0.8,    0.4,    0.1,    0.7,    1.2,    1.3,    1.0,    0.7,    0.7,    0.9,    1.3,    0.3,   -1.9,   -2.5,   -1.2,   -1.1,   -0.4,   -0.9,   -0.5,   -0.6,   -0.3,   -0.0,    0.0,    0.1,   -0.2,   -0.2,   -0.3,   -0.2,   -0.6,   -1.3,  999.0,  999.0,   -5.8,  999.0,  999.0,   -2.7,   -4.1,   -5.6,   -7.9,   -8.7,   -9.1,   -9.0,   -8.9,   -8.7,   -8.7,   -9.4,  -10.1,  -10.0,   -8.9,   -8.0,   -6.6,   -6.5,   -7.3,   -8.3,   -9.1,   -9.5,   -9.4,   -9.2,   -9.4,   -9.6,   -9.0,   -8.2,   -7.5,   -7.2,   -6.9,   -6.7,   -6.7,   -7.8,   -8.8,   -9.4,   -9.4,   -9.5,   -9.8,   -9.9,   -9.4
2011/02/22 01:20,    3.9,    5.2,    5.2,  999.0,    6.2,    6.5,    6.8,    7.7,    7.2,    6.2,    4.7,    4.2,    3.9,    3.5,    2.3,    1.2,    1.2,   -0.0,    0.7,    1.2,    1.2,    1.2,    2.3,    2.6,    2.5,    1.8,    1.4,    1.5,    1.7,    1.9,    1.9,    1.4,    1.5,    2.3,    1.5,    1.5,    0.1,   -0.0,    0.4,   -0.6,    0.4,    0.1,    0.7,   -0.5,   -0.5,   -0.4,   -1.0,   -0.3,   -0.1,   -0.2,  999.0,  999.0,   -0.5,   -2.2,   -5.6,   -5.4,   -7.5,   -6.5,   -7.6,   -7.5,   -7.2,   -8.3,   -9.0,   -8.8,   -8.5,   -8.8,   -9.3,  -10.2,  -10.5,  -10.3,   -9.9,   -9.7,   -9.6,   -9.5,   -8.9,   -8.6,   -8.8,   -9.0,   -9.0,   -9.2,   -9.8,  -10.5,  -10.9,  -10.3,   -8.8,   -7.9,   -7.6,   -7.2,   -6.6,   -6.5,   -6.5,   -7.2,   -7.9,   -8.3,   -8.7,   -9.1,   -9.4,  999.0
2011/02/22 01:30,  999.0,  999.0,    7.7,  999.0,    4.9,    8.2,    8.1,    8.3,    8.4,    7.9,    5.6,    4.3,    3.0,    3.0,    2.9,    2.7,    2.2,    2.1,    2.5,    4.0,    3.1,    4.2,    5.0,    4.8,    4.8,    3.6,    3.0,    3.8,    3.9,    3.4,    3.3,    3.0,    3.3,    3.8,    2.7,    2.9,    2.1,    1.4,    0.6,    0.9,    1.2,    1.8,    2.5,    2.4,    3.0,    3.0,    3.6,    3.0,    3.3,    1.6,    4.0,    1.0,   -0.2,   -1.3,   -1.7,   -2.0,   -3.0,   -2.7,   -5.1,   -5.9,   -6.3,   -7.0,   -7.6,   -7.6,   -8.0,   -8.8,   -9.9,  -10.6,  -10.9,  -10.5,  -10.1,   -9.7,   -9.7,   -9.8,   -9.6,   -9.7,  -10.2,  -10.4,  -10.3,  -10.5,  -10.8,  -11.0,  -10.6,   -9.9,   -9.1,   -8.4,   -8.1,   -7.7,   -7.3,   -7.6,   -7.7,   -7.8,  999.0,  999.0,  999.0,  999.0,  999.0,  999.0
2011/02/22 01:40,    5.0,    6.7,  999.0,  999.0,  999.0,    6.8,    7.3,    8.4,    7.7,    7.5,    7.7,    7.6,    6.4,    5.3,    4.7,    4.9,    4.3,    4.2,    4.7,    5.9,    6.3,    7.4,    8.2,    8.1,    7.3,    7.3,    5.7,    5.8,    5.4,    4.5,    2.1,    2.8,    0.8,    1.6,    1.3,    1.5,  999.0,   -0.2,    0.8,    1.5,    1.5,    1.0,    1.3,    1.7,    2.2,    2.2,    2.0,    2.5,    1.8,    1.4,    2.5,   -0.3,   -1.5,   -2.3,   -2.7,   -2.3,   -2.8,   -3.3,   -3.9,   -5.2,   -6.1,   -6.7,   -7.3,   -7.6,   -8.4,   -9.1,   -9.7,   -9.8,   -9.7,   -9.9,   -9.8,   -9.4,   -9.3,   -9.8,  -10.3,  -10.6,  -10.9,  -11.1,  -10.7,  -10.5,  -10.8,  -10.9,   -9.8,   -9.5,   -9.6,   -9.9,  -10.0,   -9.7,   -9.6,   -9.7,   -9.7,   -9.7,   -9.5,   -9.3,   -9.3,   -9.5,  999.0,  999.0
2011/02/22 01:50,    4.9,    6.3,    7.0,    7.0,    5.9,    6.3,    6.8,    8.2,    8.4,    7.9,    7.5,    6.5,    4.8,    4.2,    4.0,    3.7,    4.1,    4.0,    4.5,    5.5,    6.3,    7.4,    8.0,    8.1,    8.8,    8.8,    8.8,    8.5,    8.2,    7.2,    6.7,    5.7,    4.8,    4.7,    4.2,    3.9,    4.7,    5.0,    4.3,    3.2,    2.6,    2.4,    1.8,    0.5,    0.4,    0.2,   -0.3,    0.0,   -1.1,   -1.8,   -1.2,   -2.9,   -3.8,   -3.7,   -3.5,   -3.7,   -4.4,   -5.0,   -5.9,   -7.0,   -7.9,   -9.2,  -10.5,  -10.5,  999.0,  999.0,  999.0,  999.0,   -9.4,   -9.5,   -9.7,   -8.3,   -9.2,   -9.4,  999.0,  999.0,  999.0,  999.0,   -9.5,   -9.8,  -10.3,  -10.6,  -10.4,  -10.3,  -10.1,  -10.0,  -10.1,  -10.3,  -10.3,   -9.7,   -9.4,   -9.5,   -9.6,   -9.5,   -9.4,   -9.4,   -9.4,   -9.5
2011/02/22 02:00,    4.7,    6.6,    7.2,    6.4,    5.8,    7.1,    7.4,    7.5,    7.3,    7.1,    6.0,    4.5,    4.4,    4.3,    3.9,    3.8,    4.0,    4.6,    5.7,    6.9,    7.1,    8.5,    8.9,    9.0,    9.9,   10.5,  999.0,  999.0,  999.0,   10.7,   10.7,    9.9,   12.4,   12.5,   12.6,   11.8,   11.5,   10.3,    9.5,    8.7,    8.1,  999.0,  999.0,  999.0,    4.3,    3.2,    3.0,    2.9,    2.6,    2.1,    1.8,    1.2,    0.6,   -0.2,   -0.9,   -1.5,   -2.0,   -2.6,   -3.7,   -4.7,   -5.5,   -7.0,   -7.6,   -8.3,   -9.0,  -10.6,  -10.8,  -10.3,  -10.5,  999.0,  -11.1,  -11.8,  -11.6,  -11.2,  -10.9,  -10.8,  -10.8,  -10.7,  -10.2,  -10.0,  -10.1,  -10.2,  -10.5,  -10.4,   -9.9,   -9.9,  -10.1,  -10.2,   -9.9,   -9.5,   -9.5,   -9.6,   -9.4,   -9.3,   -9.3,   -9.4,   -9.3,   -9.3
2011/02/22 02:10,    4.0,    5.5,    6.0,    5.6,    6.2,    6.8,    7.0,    7.1,    6.6,    6.1,    5.0,    4.0,    4.2,    3.7,    4.3,    5.4,    5.7,    7.0,    7.0,    7.8,    8.5,    7.9,    7.8,    7.5,    7.3,    7.4,    9.6,    9.1,    7.7,    7.9,    8.2,    8.1,    8.7,    8.1,    7.8,    7.8,    7.5,    7.7,    7.9,    6.3,    6.1,    6.2,    6.3,    7.1,    6.0,    6.4,    5.9,    5.4,    4.7,    3.9,    3.8,    3.4,    2.3,    2.6,    2.4,    2.4,    1.7,    1.1,   -0.6,   -2.4,   -2.7,   -4.0,   -4.7,   -5.1,   -5.6,   -6.2,   -6.8,   -7.2,   -7.9,   -8.7,   -9.6,  -10.5,  -11.4,  -11.7,  -11.5,  -11.4,  -11.2,  -11.0,  -10.7,  -10.5,  -10.7,  -11.0,  -10.9,  -10.7,  -10.7,  -10.6,  -10.5,  -10.3,  -10.0,  -10.0,  -10.0,   -9.9,   -9.4,   -9.4,   -9.5,   -9.4,   -9.0,   -9.0
2011/02/22 02:20,  999.0,  999.0,    6.3,    6.2,    7.4,    7.6,    7.5,    7.0,    6.3,    5.2,    4.4,    4.1,    3.8,    4.3,    6.2,    7.6,    9.6,    9.4,    9.2,    8.8,    8.6,    7.6,    6.8,    6.5,    6.0,    6.0,    6.2,    6.0,    6.0,    5.9,    5.7,    5.8,    6.2,    5.9,    5.6,    5.1,    5.5,    5.9,    5.5,    5.5,    4.5,    4.6,    5.3,    5.8,    5.8,    5.5,    6.0,    6.3,    6.2,    6.7,    6.8,    6.7,    6.7,    6.6,    5.8,    5.5,    5.0,    4.2,    3.6,    2.6,    1.4,    0.1,   -1.0,   -1.9,   -3.0,   -3.5,   -4.2,   -4.9,   -6.0,   -6.9,   -7.7,   -9.2,  -10.4,  -11.2,  -11.2,  -10.9,  -10.7,  -10.5,  -10.0,   -9.8,   -9.8,   -9.7,   -9.7,   -9.8,   -9.6,   -9.3,   -9.3,   -9.3,   -9.4,   -9.6,   -9.7,   -9.4,   -9.1,   -8.7,   -8.4,   -8.3,   -7.4,   -7.4
2011/02/22 02:30,    4.1,    5.4,    5.3,    6.4,    6.8,    8.2,    8.3,    7.6,    6.8,    5.3,    4.1,    3.6,    4.0,    4.7,    5.7,    6.6,    7.4,    6.1,    5.8,    5.7,    6.0,    6.0,    5.4,    5.6,    5.3,    5.5,    4.5,    4.3,    3.5,    3.3,    3.8,    3.0,    3.0,    2.7,    2.7,    2.4,    2.5,    3.0,    3.6,    3.3,    3.7,    4.5,    5.4,    6.1,    5.8,    6.2,    6.7,    6.9,    6.9,    7.0,    7.3,    7.4,    7.4,    7.6,    7.8,    7.9,    7.4,    6.5,    5.4,    3.4,    2.7,    1.6,    0.8,   -0.2,   -1.5,   -2.4,   -3.3,   -4.5,   -5.4,   -5.6,   -5.9,   -6.6,   -7.5,   -8.3,   -8.5,   -8.7,   -9.8,  -10.7,  -10.4,   -9.6,   -9.0,   -8.9,   -9.4,   -9.7,   -9.4,   -9.2,   -8.9,   -8.8,   -8.7,   -8.9,   -8.9,   -8.9,   -8.3,   -7.4,   -6.8,   -6.9,   -7.3,   -6.5
2011/02/22 02:40,  999.0,  999.0,  999.0,    6.7,    7.2,    7.8,    7.2,    6.6,    4.8,    3.2,    2.6,    2.9,    3.7,    4.9,    5.3,    5.7,    5.0,    4.2,    3.7,    4.1,    5.1,    5.1,    4.9,    4.1,    4.5,    2.8,    2.3,    2.3,    1.9,    1.8,    1.7,    3.1,    3.8,    4.8,    4.8,    4.8,    5.2,    5.1,    4.6,    3.8,    4.0,    3.6,    4.8,    5.1,    5.4,    5.5,    5.9,    6.1,    6.3,    6.4,    6.7,    7.2,    7.8,    8.2,    8.7,    9.0,    9.0,    8.5,    8.0,    8.0,    5.9,    4.5,    3.8,    2.9,    2.1,    0.1,   -0.4,   -1.4,   -2.9,   -3.7,   -4.2,   -4.7,   -5.6,   -6.7,  999.0,  999.0,  999.0,  999.0,  999.0,  999.0,  999.0,  999.0,  999.0,  999.0,  999.0,  999.0,  999.0,  999.0,  999.0,  999.0,  999.0,  999.0,  999.0,  999.0,  999.0,  999.0,  999.0,  999.0
2011/02/22 02:50,  999.0,  999.0,    6.4,    7.5,    7.8,    8.1,    8.2,    7.9,    6.9,    5.3,    2.9,    2.8,    3.0,    3.4,    3.6,    3.8,    3.7,    4.4,    3.7,    3.1,    2.6,    1.8,    1.4,    0.8,    0.4,    0.6,    0.5,   -0.9,   -0.4,   -0.5,    0.5,    0.5,    0.2,    1.8,  999.0,    1.3,    2.3,    1.9,    2.8,    4.1,    4.0,    6.4,    7.8,    7.3,    6.7,    7.1,    8.1,    8.9,    9.2,    9.3,    9.4,    9.6,    9.7,    9.5,    9.5,    9.4,    9.1,    8.2,    8.0,    7.9,    8.1,    7.8,    6.5,    5.3,    3.8,    2.5,    1.2,   -0.2,   -1.2,   -2.0,   -2.6,   -2.7,   -2.8,   -3.8,   -5.0,   -5.6,  999.0,  999.0,  999.0,  999.0,  999.0,  999.0,  999.0,  999.0,  999.0,  999.0,  999.0,  999.0,  999.0,  999.0,  999.0,  999.0,  999.0,   -7.1,   -7.0,   -6.9,   -6.7,   -6.6
2011/02/22 03:00,  999.0,  999.0,  999.0,  999.0,    7.5,    7.5,    7.9,    4.6,    0.7,   -0.3,    4.5,    3.1,    2.7,    2.5,    3.2,    3.1,    3.5,    3.7,    3.3,    2.4,    2.6,    3.1,    3.8,    3.7,   -3.6,   -4.2,    0.9,   -0.2,    2.8,    1.4,   -2.4,   -0.7,   -0.9,    0.4,    1.0,    0.7,    3.7,    3.6,    4.8,    5.5,    7.2,    7.5,    7.5,    7.9,    7.7,    7.6,    8.4,    8.1,    8.6,    8.9,    9.2,    9.1,    9.2,    9.3,    9.6,    9.6,    9.3,    9.3,    9.0,    8.9,    8.9,    8.8,    8.2,    7.5,    6.0,    4.4,    3.2,    1.9,    0.4,    0.1,   -0.8,   -1.2,   -1.2,   -1.7,   -2.5,   -3.4,   -4.5,  999.0,  999.0,  999.0,  999.0,  999.0,  999.0,  999.0,  999.0,  999.0,  999.0,  999.0,  999.0,   -8.5,   -8.6,   -8.9,   -8.3,   -7.6,   -7.3,   -7.2,   -7.6,   -7.0
2011/02/22 03:10,  999.0,  999.0,  999.0,  999.0,  999.0,  999.0,    7.5,   -2.2,    1.7,    1.0,    0.0,   -0.7,   -1.0,    2.9,   -0.3,    3.3,    3.1,    2.2,   -5.5,   -3.3,    4.0,    0.5,   -0.1,    0.1,   -0.5,    3.6,    3.4,    4.3,    4.0,    3.9,    5.7,    4.9,    4.9,    5.3,    4.8,    4.4,    3.8,    3.8,    5.8,    5.3,    7.0,    6.0,    6.2,    6.7,    8.2,    8.3,    8.4,    8.3,    8.5,    9.0,    8.7,    9.0,    9.1,    9.2,    9.5,    9.7,    9.9,    9.7,    9.2,    8.8,    8.3,    8.0,    7.8,    7.4,    7.3,    7.0,    6.5,    5.3,    3.0,    1.9,    0.3,   -0.3,   -0.5,   -0.4,   -1.6,   -2.1,   -2.9,   -3.9,   -5.1,   -6.6,   -7.9,   -9.0,   -9.3,   -9.0,   -9.0,   -9.2,   -9.2,   -8.9,   -9.2,   -8.5,   -6.3,  999.0,   -7.1,   -7.3,   -7.8,   -7.8,   -8.0,   -8.3
2011/02/22 03:20,  999.0,  999.0,   -1.4,   -1.0,   -0.3,    6.5,    0.9,   -1.4,    2.0,    5.0,    1.2,   -1.2,    1.2,    4.6,    0.8,   -4.0,    0.6,    5.0,    5.1,    1.3,    7.4,  999.0,  999.0,  999.0,  999.0,  -16.5,  999.0,  999.0,  999.0,    4.0,    3.3,  999.0,  999.0,  -12.7,  999.0,  999.0,  999.0,    3.3,    4.7,    3.4,    3.2,    3.3,    3.7,    4.4,    4.9,    5.3,    5.7,    5.8,    6.7,    6.7,    6.7,    6.8,    7.2,    7.6,    7.7,    7.6,    7.4,    7.3,    7.6,    7.7,    7.8,    7.5,    7.6,    7.7,    7.5,    7.2,    6.2,    3.6,    2.3,    1.5,    0.2,   -0.8,   -1.1,   -1.7,   -2.3,   -2.7,   -3.4,   -4.9,   -5.9,   -6.9,   -8.1,   -8.9,   -9.2,   -9.0,   -9.2,   -9.5,   -9.3,   -9.3,   -8.8,   -8.4,   -7.9,   -8.2,   -8.6,   -9.5,  -10.1,  -10.5,  -11.0,  -11.1
2011/02/22 03:30,  999.0,  999.0,  999.0,  999.0,  999.0,    5.8,   -8.4,   -4.3,    4.3,   -4.5,  -13.1,   -8.6,   -8.5,  -13.2,   -7.4,    3.9,   -6.3,    4.5,    4.2,    4.3,    5.3,    5.7,    4.4,    3.9,    2.3,    1.7,    0.0,   -9.0,  -11.0,   -2.8,   -3.6,   -8.2,  -12.0,   -1.1,   -8.5,   -9.4,  999.0,    2.8,    3.1,    4.8,    7.2,    7.2,    7.7,    7.9,    8.1,    8.5,    8.3,    8.2,    8.0,    7.9,    8.2,    8.2,    8.6,    8.2,    7.3,    6.7,    7.1,    7.1,    7.4,    7.2,    7.0,    6.5,    6.2,    6.0,    5.6,    5.0,    4.0,    2.2,    0.7,   -0.0,   -0.6,   -0.7,   -1.6,   -2.2,   -3.0,   -3.5,   -4.0,   -4.4,   -5.2,   -6.4,   -6.6,   -7.1,   -7.2,   -7.3,   -7.5,   -7.5,   -7.4,   -7.6,  999.0,  999.0,  999.0,  999.0,  999.0,  999.0,  999.0,  999.0,  999.0,  999.0
2011/02/22 03:40,  999.0,    5.9,    6.0,    6.3,    6.2,    6.0,    5.1,    5.1,    4.9,    4.5,    4.9,    4.8,    4.8,    5.3,    5.8,    6.6,    6.5,    6.5,    6.4,    5.5,    6.4,    5.9,    5.7,    5.0,    4.2,    3.5,    2.8,    2.8,    2.7,    2.8,    2.7,    1.0,    2.5,    3.0,    4.5,    1.9,    1.1,    0.7,    0.7,    2.1,    2.1,    3.9,    3.6,    3.6,    4.3,    4.6,    4.3,    3.6,    3.3,    4.1,    4.9,    5.3,    5.2,    5.4,    5.6,    5.6,    5.6,    5.4,    5.4,    5.3,    5.3,    5.4,    5.4,    5.2,    4.9,    4.6,    4.0,    2.8,    1.9,    1.0,    0.2,   -0.4,   -0.7,   -1.2,   -2.0,   -3.0,   -3.6,   -3.8,   -4.4,   -5.2,   -5.5,   -5.4,   -5.4,   -5.3,   -4.9,   -5.0,   -5.0,   -4.3,   -4.7,  999.0,  999.0,  999.0,  999.0,  999.0,   -7.9,  999.0,  999.0,  999.0
2011/02/22 03:50,  999.0,  999.0,    5.7,    6.4,    5.4,    5.2,    4.9,    5.5,    6.2,    6.9,    6.6,    5.7,    5.8,    5.3,    4.6,    6.1,    6.2,  999.0,    4.1,    4.2,    4.6,    4.5,    4.5,    3.2,    3.2,    1.2,    1.4,    1.6,    1.7,    2.1,    2.3,    1.3,    1.4,  999.0,  999.0,  999.0,  999.0,  999.0,  999.0,  999.0,  999.0,  999.0,    2.1,    1.3,    1.2,    1.4,    1.9,    2.1,    2.4,    2.5,    2.3,    2.5,    2.8,    2.9,    3.5,    3.9,    3.9,    3.9,    4.0,    4.3,    4.5,    4.6,    4.4,    4.1,    3.9,    4.0,    3.7,    3.0,    2.8,    2.4,    1.7,    1.0,    0.5,   -0.2,   -1.3,   -2.4,   -3.8,   -4.1,   -4.0,   -4.1,   -4.4,   -4.3,   -3.9,   -3.5,   -3.5,   -3.6,   -3.5,   -3.6,   -4.0,   -5.1,   -5.3,   -6.7,   -7.0,   -6.6,   -6.5,   -6.3,   -6.2,   -6.6
2011/02/22 04:00,    3.3,    3.8,    4.6,    5.9,    6.2,    6.0,    5.4,    5.0,    4.8,    5.2,    5.6,    5.8,    6.1,    7.2,    8.2,    8.6,    9.9,   10.3,   10.5,   10.2,    9.8,    7.8,    6.8,    4.8,  999.0,    4.9,  999.0,    3.0,  999.0,    3.8,    2.5,  999.0,    2.5,    2.2,    1.6,    1.0,    1.9,    0.9,    1.6,    1.9,    1.5,    2.7,  999.0,  999.0,    1.3,    1.7,    1.8,    2.0,    2.0,    2.1,    2.4,    2.6,    2.5,    2.6,    2.8,    3.2,    3.3,    3.3,    3.7,    4.1,    4.5,    4.5,    4.2,    3.5,    3.1,    3.1,    3.0,    2.6,    2.6,    2.5,    1.9,    1.3,    0.9,    0.4,   -0.2,   -1.1,   -2.4,   -3.4,   -3.8,   -3.8,   -3.6,   -3.4,   -3.0,   -2.6,   -2.2,   -1.7,   -1.2,   -1.1,   -1.5,   -2.5,   -4.3,   -5.3,   -5.7,   -5.8,   -5.8,   -6.2,   -6.6,   -7.1
2011/02/22 04:10,    3.0,    3.6,    5.2,    6.7,    8.7,    8.3,    7.2,    6.3,    5.8,    6.0,    6.8,    7.4,    8.3,    8.6,    9.2,    9.5,    9.5,    8.3,    7.9,    7.8,    7.7,    6.2,    4.8,    3.9,    4.2,    4.7,    3.2,    2.6,    1.7,    1.4,    1.3,    0.9,    0.9,    0.7,    0.5,    0.4,    0.3,    0.6,    1.4,    1.7,    1.3,  999.0,    1.6,    1.0,    1.1,    1.6,    2.2,    2.7,    2.8,    2.6,    2.5,    2.4,    2.2,    2.7,    3.1,    3.1,    2.9,    2.7,    2.9,    3.2,    3.4,    3.8,    4.2,    3.7,    3.0,    2.8,    2.5,    2.1,    1.9,    1.9,    1.4,    0.9,    0.6,    0.2,   -0.6,   -1.3,   -1.6,   -1.9,   -2.4,   -2.4,   -2.1,   -1.5,   -1.2,   -0.8,   -0.8,   -0.6,   -0.7,   -1.0,   -1.1,   -2.0,   -2.8,   -4.4,   -5.0,   -5.2,   -5.6,   -6.1,   -6.3,   -6.9
2011/02/22 04:20,    2.7,    4.1,    6.2,    7.3,    7.6,    8.0,    8.3,    9.0,    8.9,    9.3,    9.0,    9.0,    8.9,    8.2,    6.7,    6.1,    6.6,    6.3,    6.4,    6.1,    6.1,    6.4,    5.2,    4.5,    3.6,    3.2,    2.1,    1.7,    1.4,    0.6,    0.4,    1.1,    1.7,    0.1,   -0.1,    0.9,    0.8,    0.3,    0.3,   -0.3,    0.7,   -0.1,  999.0,    0.2,    0.5,    1.1,    1.4,    1.8,    2.2,    2.5,    2.1,    1.6,    0.9,    0.7,    0.8,    1.0,    1.2,    1.5,    1.8,    2.2,    2.7,    2.8,    3.4,    3.7,    3.5,    3.0,    2.8,    2.5,    2.1,    1.7,    0.6,    0.0,   -0.3,   -0.5,   -0.5,   -0.7,   -0.8,   -1.1,   -1.2,   -0.9,   -0.5,   -0.4,   -0.2,   -0.1,   -0.4,   -0.9,   -1.3,   -1.8,   -2.1,   -1.9,   -2.3,   -3.0,   -4.0,   -4.2,   -4.5,   -5.0,   -5.2,   -6.0
2011/02/22 04:30,  999.0,  999.0,  999.0,  999.0,   10.1,   11.1,   12.2,   12.0,   12.7,   13.0,   12.1,   10.7,   10.3,   10.1,    9.6,    9.1,    8.7,    8.0,    7.5,    6.3,    5.2,    4.9,    4.2,    3.3,    2.6,    1.9,    2.5,    1.6,    0.4,    1.3,   -0.1,   -1.3,   -1.2,   -0.8,   -1.0,   -2.5,   -2.2,  999.0,   -2.5,  999.0,   -2.2,  999.0,  999.0,  999.0,   -0.6,   -0.2,   -0.0,    0.3,    0.6,    1.0,    0.8,    0.5,    0.3,   -0.3,   -0.8,   -0.9,   -0.9,   -0.9,   -1.9,   -0.2,    0.5,    1.1,    2.0,    2.8,    3.6,    4.0,    4.0,    3.6,    3.0,    2.7,    2.3,    1.5,    0.5,    0.1,    0.0,    0.2,    0.4,    0.1,   -0.1,   -0.6,   -0.9,   -0.5,   -0.0,    0.1,   -0.0,   -0.7,   -1.4,   -2.4,   -2.7,   -2.4,   -2.8,   -2.8,   -3.1,   -3.5,   -3.7,   -3.8,   -4.0,   -3.8
2011/02/22 04:40,    4.3,    5.6,    5.8,    6.9,    7.8,    8.8,    9.1,    4.4,    4.5,    3.4,   11.7,   11.6,  999.0,  999.0,  999.0,    8.3,    8.0,   -2.9,    8.2,    7.0,   -2.5,   -3.8,    4.0,    1.1,   -0.3,   -1.0,   -3.0,  999.0,  999.0,  999.0,  999.0,  999.0,    1.5,  999.0,   -0.5,  999.0,   -0.8,   -0.3,  999.0,  999.0,  999.0,  999.0,  999.0,  999.0,   -2.9,   -2.1,   -1.8,   -2.0,   -2.5,   -3.2,   -3.2,   -2.7,   -2.3,   -2.7,   -2.9,   -2.8,   -2.5,   -2.2,   -2.4,   -2.4,   -1.7,   -0.8,   -0.1,    1.0,    2.1,    3.1,    3.9,    4.0,    3.8,    3.5,    2.8,    1.9,    1.4,    1.2,    0.9,    0.8,    0.6,    0.1,   -0.4,   -0.7,   -0.7,   -0.7,   -0.7,   -0.1,   -0.0,   -0.4,   -1.1,   -1.9,   -2.6,   -2.5,   -3.0,   -2.8,   -2.9,   -3.4,   -3.7,   -4.0,   -4.2,  999.0
2011/02/22 04:50,    4.0,    4.2,    5.1,    6.0,    6.5,    7.3,    7.8,    8.5,    8.6,    9.6,   10.2,   10.5,   11.0,  999.0,    9.9,    7.2,    9.5,    8.2,    9.7,    9.6,    7.7,    5.6,    4.8,    4.1,    3.1,    3.6,    1.8,   -0.0,   -1.0,   -0.8,   -2.5,   -3.1,   -2.8,   -2.6,   -2.8,   -3.3,   -2.6,   -2.7,   -0.7,  999.0,   -3.4,   -3.3,   -3.3,   -3.1,   -2.9,   -2.8,   -2.9,   -3.1,   -3.6,   -4.3,   -5.1,   -5.4,   -5.1,   -4.7,   -3.6,   -3.6,   -3.1,   -2.7,   -2.3,   -1.8,   -1.5,   -1.1,   -0.2,    0.8,    1.5,    2.6,    3.5,    4.1,    4.1,    4.0,    3.8,    3.5,    3.1,    2.7,    2.5,    1.9,    0.8,   -0.1,   -0.8,   -1.1,   -1.0,   -1.0,   -1.2,   -1.0,   -0.4,   -0.6,   -1.2,   -1.9,   -2.5,   -2.9,   -3.1,   -3.3,   -3.8,   -3.8,   -4.2,   -4.4,   -4.8,  999.0
2011/02/22 05:00,    2.9,    3.9,    3.7,    4.1,    5.1,    6.3,    6.5,    6.5,    6.6,    7.8,    8.9,    8.9,    9.8,    9.8,  999.0,  999.0,  999.0,  999.0,  999.0,    7.1,    4.8,    3.0,    1.9,    1.8,   -0.0,   -1.4,   -1.1,   -1.6,   -2.3,   -3.8,   -4.1,   -4.6,   -3.4,   -2.8,   -3.4,   -3.9,   -5.0,   -4.4,  999.0,  999.0,   -4.0,  999.0,  999.0,   -3.6,   -2.7,   -2.3,   -1.8,   -1.7,   -2.2,   -2.7,   -3.1,   -3.9,   -5.0,   -5.5,   -5.4,   -4.6,   -3.8,   -2.9,   -2.4,   -2.1,   -1.8,   -1.4,   -0.8,    0.4,    1.1,    1.8,    2.4,    3.0,    3.6,    3.8,    3.8,    3.6,    2.7,    2.3,    1.8,    1.1,    0.2,   -0.6,   -1.1,   -1.2,   -1.3,   -1.6,   -1.7,   -1.6,   -1.3,   -0.8,   -1.4,   -2.1,   -2.9,   -3.3,   -3.7,   -3.9,   -4.2,   -4.5,   -4.8,   -5.3,   -5.9,   -5.8
2011/02/22 05:10,    1.9,    2.5,    3.5,    4.7,    5.9,    6.9,    6.9,    6.6,    8.4,    9.5,   10.3,   10.4,   11.2,   11.0,   10.3,    9.5,    9.7,    9.3,    8.3,    4.8,    3.8,    2.4,    0.3,   -2.5,   -4.1,   -5.2,   -5.8,   -6.6,   -6.7,   -6.3,   -6.0,   -6.1,   -5.5,   -5.0,   -3.5,   -4.4,   -4.2,   -4.9,   -4.7,   -4.4,   -4.4,   -4.1,  999.0,   -4.3,   -3.0,   -2.0,   -1.4,   -1.2,   -1.6,   -2.1,   -2.6,   -3.5,   -4.6,   -5.4,   -5.9,   -5.7,   -5.3,   -4.4,   -3.8,   -3.2,   -2.5,   -1.9,   -1.3,   -0.6,   -0.1,    0.3,    0.7,    1.3,    1.7,    2.0,    2.0,    1.6,    1.0,    0.4,   -0.2,   -0.6,   -1.1,   -1.5,   -1.7,   -2.1,   -2.6,   -2.6,   -2.5,   -2.5,   -2.2,   -2.2,   -2.7,   -3.3,   -3.5,   -4.1,   -4.5,   -5.0,   -5.5,   -6.0,   -6.5,   -6.8,   -6.9,   -7.5
2011/02/22 05:20,    1.1,    2.9,    3.7,    3.5,    4.6,    5.8,    6.8,    8.4,    9.5,    9.8,   10.4,   10.8,   10.9,   10.5,    9.1,    8.9,    8.9,    9.6,    9.5,    7.0,    6.0,    3.6,    2.9,    1.8,   -2.1,   -2.4,   -3.3,   -2.6,   -4.1,   -3.3,   -3.2,   -3.1,   -3.7,   -3.7,   -3.6,   -5.5,   -5.5,   -5.4,   -5.1,   -4.1,   -3.5,   -5.0,   -4.2,   -2.4,   -1.4,   -0.9,   -0.6,   -0.7,   -1.4,   -2.0,   -2.2,   -3.3,   -4.2,   -4.9,   -5.5,   -5.8,   -5.7,   -5.1,   -4.4,   -3.7,   -3.4,   -2.9,   -2.5,   -2.1,   -1.8,   -1.5,   -1.3,   -0.6,   -0.1,    0.6,    0.4,    0.2,   -0.2,   -0.2,   -0.1,   -0.5,   -1.1,   -1.7,   -2.1,   -2.6,   -3.0,   -3.0,   -3.2,   -3.2,   -3.2,   -3.3,   -3.6,   -4.0,   -4.0,   -4.6,   -5.1,   -5.9,   -6.5,   -6.8,   -7.2,   -7.7,   -7.9,   -8.0
2011/02/22 05:30,   -0.2,    2.2,    4.1,    4.7,    4.7,    5.7,    6.6,    8.9,    9.5,    9.4,    8.9,    8.0,    7.5,    7.1,    7.7,    7.9,    9.1,    8.0,    7.8,    6.7,    5.6,    4.6,    2.7,    1.4,   -0.3,   -1.9,   -2.5,   -1.1,   -1.1,   -0.2,   -0.9,   -2.6,   -3.5,   -4.1,   -3.8,   -4.3,   -4.3,   -4.1,   -3.3,   -2.2,   -1.7,  999.0,   -0.3,    0.6,    1.9,    2.0,    1.4,    0.9,   -0.4,   -2.1,   -2.7,   -3.4,   -3.9,   -4.7,   -5.4,   -6.0,   -5.5,   -4.8,   -4.3,   -3.8,   -3.5,   -3.2,   -2.6,   -2.3,   -2.1,   -1.8,   -1.6,   -1.4,   -1.1,   -0.8,   -0.5,   -0.4,   -0.5,   -0.6,   -0.9,   -1.2,   -1.6,   -1.9,   -2.3,   -2.9,   -3.4,   -3.7,   -3.8,   -3.7,   -3.8,   -3.8,   -3.9,   -3.9,   -3.8,   -4.0,   -4.2,   -4.9,   -5.4,   -5.7,   -6.1,   -6.5,   -6.9,   -7.1
2011/02/22 05:40,    1.3,    3.7,    5.2,    5.9,    6.6,    8.1,    8.9,    9.0,    8.7,    8.7,    8.5,    9.1,    9.0,    8.8,    9.4,    9.4,    9.4,    9.0,    7.2,    5.7,    4.2,    2.9,    0.8,   -0.2,   -1.6,   -1.5,   -0.8,    1.0,    1.3,    0.3,   -0.4,   -1.6,   -3.0,   -3.9,   -4.1,   -3.5,   -3.3,   -2.5,   -1.6,  999.0,  999.0,  999.0,  999.0,    0.9,    1.2,    1.6,    1.6,    1.7,    0.7,   -1.2,   -2.5,   -3.1,   -3.8,   -4.9,   -5.6,   -6.1,   -5.6,   -4.6,   -4.1,   -3.7,   -3.4,   -3.0,   -2.3,   -2.1,   -1.9,   -1.8,   -1.6,   -1.7,   -1.8,   -1.7,   -1.6,   -1.7,   -1.8,   -2.0,   -2.3,   -2.5,   -2.7,   -3.1,   -3.6,   -3.9,   -3.9,   -4.1,   -4.1,   -3.9,   -4.0,   -4.5,   -4.7,   -4.8,   -4.8,   -4.9,   -4.9,   -5.1,   -5.2,   -5.3,   -5.6,   -6.0,   -6.3,   -6.7
2011/02/22 05:50,    1.8,    4.4,    4.8,    5.6,    7.5,    8.5,    8.5,    8.4,    9.0,    9.4,    9.0,    8.7,    8.2,    8.4,    9.1,    8.9,    8.7,    7.7,    5.7,    4.5,    3.2,    2.0,    0.1,   -1.5,   -2.6,   -2.8,   -1.8,   -0.2,    0.2,   -0.3,   -2.0,   -2.4,   -3.8,   -4.7,   -6.2,   -6.2,   -6.0,   -3.9,   -4.2,  999.0,  999.0,  999.0,  999.0,  999.0,    1.4,    1.9,    1.7,    1.2,    0.3,   -1.4,   -2.5,   -4.0,   -5.2,   -6.0,   -6.3,   -6.2,   -5.1,   -4.6,   -4.5,   -4.3,   -4.0,   -3.6,   -3.1,   -2.7,   -2.4,   -2.2,   -2.1,   -2.0,   -2.2,   -2.6,   -3.0,   -3.1,   -3.3,   -3.4,   -3.4,   -3.5,   -3.7,   -3.9,   -4.2,   -4.4,   -4.6,   -4.6,   -4.7,   -4.7,   -4.4,   -4.5,   -4.8,   -4.7,   -4.6,   -4.6,   -4.5,   -4.5,   -4.3,   -4.4,   -4.7,   -5.3,   -5.7,   -5.8
2011/02/22 06:00,  999.0,    4.4,    4.6,    5.4,    7.3,    7.9,    8.5,    9.3,    9.7,   10.4,    9.7,    8.6,    8.0,    7.1,    8.3,    8.1,    7.2,    6.4,    5.9,    4.8,    4.1,    3.5,    2.2,    1.3,    0.7,    0.9,    2.4,    3.5,    2.1,    0.7,   -0.9,   -2.0,   -3.3,   -4.9,   -5.8,   -5.7,   -6.5,   -6.0,   -4.4,  999.0,   -2.5,  999.0,  999.0,   -0.1,    1.7,    1.3,    0.8,    0.3,   -1.0,   -2.5,   -3.3,   -4.4,   -5.9,   -6.7,   -7.1,   -6.8,   -5.4,   -4.6,   -4.4,   -4.5,   -4.5,   -4.2,   -3.9,   -3.6,   -3.1,   -2.8,   -2.3,   -2.1,   -2.1,   -2.4,   -3.0,   -3.3,   -3.5,   -3.7,   -3.7,   -3.8,   -4.0,   -4.1,   -4.1,   -3.9,   -3.8,   -3.8,   -4.0,   -4.2,   -4.0,   -3.9,   -4.1,   -4.4,   -4.1,   -4.1,   -4.3,   -4.3,   -4.5,   -4.4,   -4.6,   -5.1,   -5.4,   -5.6
2011/02/22 06:10,  999.0,    5.2,  999.0,    6.5,    7.9,    9.8,  999.0,   11.5,   10.5,   10.1,  999.0,    6.8,    7.0,    7.2,    6.9,    7.2,    6.4,    6.3,    5.1,    4.3,    3.4,    2.1,    1.3,   -0.1,    0.6,    1.4,    2.1,    1.4,  999.0,  999.0,  999.0,   -2.5,   -2.9,   -4.1,   -3.9,   -4.5,   -5.2,   -5.5,   -4.9,   -3.5,  999.0,  999.0,  999.0,  999.0,  999.0,    0.4,   -0.5,   -0.6,   -1.4,   -2.6,   -3.4,   -4.3,   -5.4,   -6.4,   -7.1,   -6.6,   -5.5,   -4.5,   -4.1,   -4.3,   -4.3,   -4.1,   -4.1,   -4.0,   -3.7,   -3.3,   -2.8,   -2.5,   -2.2,   -2.6,   -3.2,   -3.8,   -3.9,   -4.0,   -3.8,   -3.5,   -3.4,   -3.7,   -4.0,   -4.2,   -3.9,   -3.7,   -3.8,   -3.9,   -4.0,   -4.1,   -4.3,   -4.5,   -4.5,   -4.4,   -4.4,   -4.6,   -4.6,   -4.6,   -4.8,   -4.8,   -4.9,   -5.1
2011/02/22 06:20,  999.0,    5.4,    6.9,    7.2,  999.0,  999.0,    9.3,   10.7,   10.0,    9.2,    9.1,    8.9,    6.6,    4.8,    3.3,    3.0,    3.9,    4.9,    4.6,    3.9,    2.9,    2.3,    1.3,    0.1,    0.5,    1.9,    2.5,    1.2,   -0.7,   -2.1,   -3.3,   -4.3,   -4.5,   -4.1,   -4.4,   -4.9,   -5.5,   -6.3,   -5.4,   -4.6,   -3.1,  999.0,  999.0,   -1.8,    0.2,   -0.4,   -1.0,   -0.9,   -2.0,   -3.5,   -4.5,   -5.0,   -5.5,   -6.4,   -6.7,   -6.0,   -5.5,   -4.9,   -4.4,   -4.5,   -4.9,   -4.6,   -4.5,   -4.6,   -4.5,   -4.3,   -3.8,   -3.5,   -2.9,   -2.9,   -3.3,   -3.6,   -3.9,   -4.0,   -3.9,   -3.4,   -2.9,   -3.1,   -3.5,   -3.8,   -3.7,   -3.7,   -3.5,   -3.4,   -3.8,   -4.1,   -4.2,   -4.6,   -4.9,   -5.0,   -4.3,   -4.4,   -4.9,   -4.9,   -4.6,   -4.6,   -4.8,   -5.3
2011/02/22 06:30,    3.1,    4.7,    5.2,    6.8,    9.0,   10.1,   11.3,   10.8,    9.5,    9.0,    8.0,    7.1,    5.6,    4.5,    2.9,    1.9,    2.4,    3.4,    3.6,    2.9,    2.1,    1.1,    0.1,   -0.3,    0.7,    1.2,    1.6,    0.5,   -1.6,   -3.5,   -4.9,   -5.1,   -5.1,   -5.5,   -6.4,   -6.7,   -7.0,   -7.5,   -7.0,   -5.9,   -4.6,   -3.9,  999.0,   -1.5,   -0.2,   -1.2,   -1.5,   -2.0,   -3.3,   -4.8,   -6.0,   -6.3,   -6.6,   -6.9,   -6.2,   -5.2,   -5.0,   -4.4,   -4.4,   -4.8,   -5.0,   -4.5,   -4.5,   -4.6,   -4.7,   -4.6,   -4.3,   -3.9,   -3.5,   -3.3,   -3.5,   -3.6,   -3.9,   -4.0,   -3.8,   -3.3,   -3.0,   -3.0,   -3.1,   -3.5,   -3.4,   -3.2,   -3.3,   -3.3,   -3.4,   -4.0,   -4.6,   -5.2,   -5.5,   -5.4,   -5.2,   -5.0,   -5.0,   -5.1,   -5.0,   -5.0,   -5.0,   -5.3
2011/02/22 06:40,    2.8,    5.5,    6.1,    7.5,    8.7,    8.8,    8.4,    7.5,    6.5,    6.3,    5.6,    5.9,    4.8,    4.5,    4.4,    2.9,  999.0,  999.0,  999.0,    2.9,  999.0,  999.0,    1.1,    1.6,    3.3,    3.2,    2.7,    1.6,    0.2,   -1.1,   -2.1,   -2.6,   -3.5,   -4.2,   -5.1,   -6.0,   -6.7,   -7.1,   -7.4,   -6.0,   -4.3,   -2.8,   -1.4,  999.0,   -0.4,   -1.0,   -1.3,   -1.9,   -3.5,   -5.1,   -6.1,   -6.5,   -7.2,   -6.8,   -5.5,   -4.9,   -4.7,   -4.8,   -5.6,   -6.0,   -5.5,   -5.0,   -4.9,   -4.8,   -5.0,   -4.8,   -4.5,   -4.3,   -4.0,   -3.9,   -3.9,   -3.9,   -3.9,   -3.9,   -3.8,   -3.5,   -3.0,   -2.8,   -2.8,   -2.9,   -3.2,   -3.4,   -3.5,   -3.3,   -3.2,   -3.9,   -4.4,   -4.7,   -4.7,   -4.6,   -4.3,   -4.7,   -4.9,   -4.8,   -4.8,   -4.7,   -4.9,   -5.3
2011/02/22 06:50,  999.0,  999.0,  999.0,  999.0,    9.8,   11.8,  999.0,   10.8,  999.0,  999.0,    7.5,    6.7,  999.0,    3.8,    3.4,    2.1,    0.7,    1.4,    1.9,    2.6,    2.3,    2.9,    1.7,    0.7,    1.2,    1.7,    0.5,    0.0,   -1.5,   -2.7,   -3.2,   -3.8,   -4.2,   -4.7,   -4.6,   -4.8,   -5.0,   -4.9,   -5.1,   -4.3,   -2.6,   -2.7,  999.0,  999.0,  999.0,  999.0,   -0.9,   -1.8,   -3.8,   -5.7,   -6.8,   -6.6,   -6.9,   -6.7,   -5.5,   -4.7,   -4.5,   -4.8,   -5.6,   -5.9,   -5.6,   -5.3,   -5.0,   -4.9,   -5.0,   -5.1,   -5.0,   -4.7,   -4.6,   -4.6,   -4.6,   -4.6,   -4.5,   -4.5,   -4.3,   -4.0,   -3.7,   -3.3,   -3.1,   -3.0,   -3.0,   -3.2,   -3.2,   -3.3,   -3.5,   -3.6,   -4.1,   -4.5,   -4.8,   -4.9,   -4.9,   -5.1,   -4.9,   -4.9,   -5.0,   -4.9,   -5.2,   -5.9
2011/02/22 07:00,  999.0,    6.8,    7.4,    8.1,    9.1,   11.0,   11.5,   10.0,   10.1,    9.0,  999.0,    5.5,    4.1,    3.0,    3.2,    1.3,   -0.2,    0.4,    1.5,    2.5,    3.0,    2.5,    1.9,    1.5,    2.5,    2.0,    0.9,   -0.1,   -0.7,   -2.2,   -2.8,   -3.9,   -4.5,   -5.0,   -5.7,   -6.9,   -7.2,   -6.9,   -6.9,   -6.1,   -5.6,   -2.3,  999.0,  999.0,  999.0,  999.0,  999.0,  999.0,   -4.3,   -5.9,   -6.8,   -6.3,   -6.3,   -6.2,   -5.7,   -4.9,   -4.3,   -4.3,   -4.7,   -5.1,   -5.2,   -4.9,   -4.7,   -4.6,   -4.5,   -4.8,   -5.0,   -4.9,   -4.6,   -4.8,   -4.7,   -4.9,   -5.1,   -5.0,   -4.7,   -4.6,   -4.3,   -3.9,   -3.2,   -3.0,   -3.1,   -3.1,   -3.1,   -3.3,   -3.5,   -3.6,   -3.7,   -4.2,   -4.5,   -4.8,   -5.0,   -5.0,   -4.9,   -5.2,   -5.3,   -5.0,   -5.1,   -5.8
2011/02/22 07:10,  999.0,    6.3,    7.2,    7.8,    9.1,   10.9,   12.3,   10.3,    9.7,    8.9,    7.6,    6.4,    5.3,    5.1,    5.0,  999.0,    2.2,    2.0,    3.6,    4.7,    5.2,    5.0,    4.3,    4.4,    4.7,    3.7,    2.6,    1.6,    0.8,   -0.5,   -1.3,   -2.2,   -2.3,   -2.7,   -3.7,   -4.2,   -4.7,   -4.1,   -3.8,   -3.1,   -1.9,   -2.0,  999.0,  999.0,  999.0,  999.0,   -1.6,   -3.2,   -4.9,   -6.3,   -6.6,   -6.6,   -6.2,   -5.8,   -5.6,   -5.1,   -4.3,   -4.3,   -4.3,   -4.4,   -4.6,   -4.5,   -4.5,   -4.3,   -4.2,   -4.1,   -3.8,   -3.9,   -4.1,   -4.0,   -4.3,   -4.7,   -4.9,   -5.0,   -4.9,   -4.6,   -4.0,   -3.2,   -2.8,   -2.8,   -2.8,   -3.0,   -3.2,   -3.4,   -3.5,   -3.6,   -3.9,   -4.0,   -4.0,   -4.3,   -4.6,   -5.0,   -5.1,   -5.0,   -4.7,   -4.8,   -5.4,   -6.2
2011/02/22 07:20,  999.0,  999.0,  999.0,  999.0,  999.0,    7.0,   12.2,   10.5,    9.2,    8.9,    7.9,    6.6,    5.4,    5.7,    4.4,    2.9,    1.0,    1.6,    2.7,    4.1,    2.9,    4.8,    3.9,    3.9,    3.1,    2.4,    0.6,   -0.9,   -1.7,   -2.0,   -2.2,   -2.7,   -3.8,   -4.9,   -5.6,   -6.1,   -5.9,   -5.1,   -4.6,   -4.0,   -3.9,   -3.0,  999.0,  999.0,  999.0,   -2.2,   -2.9,   -4.3,   -5.6,   -6.9,   -7.4,   -7.2,   -6.4,   -5.8,   -5.6,   -5.4,   -4.8,   -4.5,   -4.4,   -4.2,   -4.2,   -4.1,   -3.8,   -3.7,   -3.6,   -3.2,   -2.5,   -2.1,   -1.9,   -1.9,   -1.9,   -2.1,   -2.1,   -2.6,   -3.3,   -3.7,   -3.5,   -3.0,   -2.4,   -2.2,   -2.2,   -2.5,   -2.8,   -2.9,   -3.1,   -3.3,   -3.2,   -3.2,   -3.2,   -3.4,   -3.5,   -3.8,   -3.7,   -3.8,  999.0,  999.0,  999.0,  999.0
2011/02/22 07:30,  999.0,  999.0,  999.0,    9.1,  999.0,    6.3,    6.1,  999.0,  999.0,  999.0,  999.0,    7.4,    6.3,    6.6,    4.7,  999.0,    3.1,    1.0,    2.0,    2.6,    2.7,    2.6,    2.2,    2.2,    1.8,    0.9,   -0.3,   -1.2,   -1.2,   -0.6,   -1.4,   -2.6,   -4.6,   -5.4,   -5.5,   -5.4,   -5.4,   -5.1,   -4.5,   -4.0,   -4.2,   -3.4,  999.0,   -2.8,   -2.9,   -3.1,   -3.7,   -5.0,   -5.8,   -6.4,   -6.7,   -6.5,   -6.1,   -5.5,   -5.0,   -4.7,   -4.5,   -4.6,   -4.4,   -4.1,   -3.9,   -3.5,   -3.0,   -2.5,   -2.1,   -1.2,   -0.5,   -1.0,    0.1,    0.6,    0.7,    0.2,   -0.1,   -0.9,   -1.8,   -2.5,   -2.6,   -2.5,   -2.4,   -2.4,   -2.3,   -2.5,   -2.6,   -2.7,   -2.8,   -3.0,   -3.1,  999.0,  999.0,  999.0,  999.0,  999.0,  999.0,  999.0,  999.0,  999.0,  999.0,  999.0
2011/02/22 07:40,    2.4,  999.0,  999.0,    4.5,    5.2,    5.9,    5.1,    4.9,    6.6,  999.0,    6.7,    7.7,    6.5,    5.1,    4.1,    3.1,    1.5,    0.6,    1.7,    1.7,    1.8,    1.7,    2.2,    2.1,    2.1,    1.6,    0.8,    0.9,    0.2,   -1.4,   -3.4,   -4.2,   -4.5,   -4.4,   -4.5,   -4.3,   -4.5,   -4.2,   -3.6,   -2.8,   -3.9,   -3.0,  999.0,  999.0,   -3.6,   -4.1,   -4.5,   -5.1,   -5.3,   -5.5,   -5.9,   -6.2,   -5.5,   -4.9,   -4.2,   -3.5,   -3.5,   -4.0,   -3.7,   -3.1,   -2.2,   -1.4,   -1.1,   -0.3,    0.2,    1.0,    1.3,    1.7,    1.9,    2.0,    2.0,    2.0,    1.5,    1.4,    0.5,   -0.9,   -1.4,   -1.8,   -2.2,   -2.2,   -2.1,   -2.7,  999.0,  999.0,  999.0,  999.0,   -0.1,    0.2,    0.1,  999.0,   -0.1,  999.0,  999.0,  999.0,  999.0,  999.0,  999.0,  999.0
2011/02/22 07:50,  999.0,    5.8,    4.2,    4.7,    5.2,    6.3,  999.0,   10.0,    9.2,    8.5,    8.0,    9.2,    7.1,    6.2,    4.4,    3.3,    2.0,    1.3,    1.4,    2.8,    2.8,    2.5,    3.0,    2.7,    1.6,   -0.3,    0.1,    0.3,   -1.1,   -3.0,   -3.9,   -4.7,   -5.0,   -5.5,   -5.6,   -5.8,   -6.5,   -6.3,   -5.0,   -4.7,  999.0,  999.0,  999.0,  999.0,   -3.7,   -4.2,   -4.9,   -5.0,   -5.3,   -6.0,   -6.1,   -5.5,   -4.9,   -4.6,   -4.3,   -3.5,   -3.5,   -3.7,   -3.7,   -3.0,   -1.9,   -0.6,    0.2,    1.1,    1.5,    1.6,    1.9,    2.1,    2.0,    1.8,    1.9,    2.4,    2.5,    2.3,    2.2,    0.6,  999.0,  999.0,  999.0,  999.0,  999.0,  999.0,  999.0,  999.0,  999.0,  999.0,  999.0,   -0.2,   -0.0,   -0.1,  999.0,  999.0,  999.0,  999.0,  999.0,  999.0,  999.0,  999.0
2011/02/22 08:00,    4.5,    5.9,    6.9,    7.7,    8.9,   10.8,   11.3,   10.7,    9.2,    8.3,    8.8,    8.7,    6.8,    4.5,    2.8,    1.3,    1.4,    1.7,    2.3,    2.7,    2.4,    1.8,    1.9,    1.1,    0.5,   -0.1,   -0.3,   -0.8,   -2.2,   -4.1,   -4.9,   -5.6,   -5.8,   -6.0,   -6.3,   -5.8,   -6.6,   -6.6,   -5.9,   -5.1,   -4.9,   -3.6,  999.0,  999.0,   -4.1,   -4.9,   -5.5,   -5.6,   -6.3,   -6.3,   -5.6,   -5.0,   -4.5,   -3.7,   -3.2,   -2.9,   -2.9,   -2.8,   -2.0,   -0.5,    0.5,    1.0,    1.2,    1.6,    1.7,    1.5,    1.4,    1.0,    0.5,    0.3,    0.7,    1.5,    2.8,  999.0,  999.0,  999.0,  999.0,  999.0,  999.0,  999.0,  999.0,  999.0,  999.0,  999.0,  999.0,  999.0,  999.0,   -0.1,   -0.0,  999.0,  999.0,  999.0,  999.0,  999.0,  999.0,  999.0,  999.0,  999.0
2011/02/22 08:10,  999.0,    7.6,    7.6,    8.3,    9.2,   10.5,   10.7,   10.3,    9.4,    8.5,    7.4,    7.0,    5.2,    2.4,    1.3,    1.3,    1.5,    1.7,    1.4,    1.3,    1.1,    0.7,    0.5,   -0.0,   -0.2,   -0.2,   -0.5,   -1.3,   -1.9,   -2.5,   -2.8,   -3.8,   -4.8,   -5.2,   -5.2,   -5.5,   -6.9,   -6.6,   -5.7,   -5.7,   -5.1,   -3.4,  999.0,   -3.7,   -4.0,   -4.5,   -4.7,   -5.2,   -5.8,   -5.1,   -4.7,   -4.3,   -3.4,   -2.7,   -2.5,   -2.5,   -2.4,   -1.4,   -0.2,    0.5,    1.0,    1.1,    0.3,   -0.1,   -0.3,   -0.3,   -0.5,   -0.7,    0.4,  999.0,  999.0,  999.0,  999.0,  999.0,  999.0,  999.0,  999.0,  999.0,  999.0,  999.0,  999.0,  999.0,  999.0,  999.0,  999.0,   -0.2,  999.0,  999.0,   -0.0,    0.2,  999.0,  999.0,  999.0,  999.0,  999.0,  999.0,  999.0,  999.0
2011/02/22 08:20,    3.3,    5.4,    3.1,    3.6,    4.8,    5.3,    5.3,    5.3,    4.6,  999.0,  999.0,    5.9,  999.0,  999.0,  999.0,    4.0,    2.4,    2.9,    2.0,    2.8,    2.6,    2.6,    2.7,    2.1,    1.8,    1.4,    0.4,   -0.2,   -1.3,   -1.6,   -2.0,   -2.5,   -2.9,   -3.3,   -4.1,   -5.5,   -5.5,   -4.8,   -3.7,   -3.8,   -3.4,   -5.2,  999.0,  999.0,   -4.3,   -4.5,   -4.7,   -5.2,   -5.8,   -5.8,   -5.2,   -4.6,   -2.9,   -2.4,   -2.7,   -2.3,   -1.4,   -0.4,    0.4,    0.6,    0.2,   -0.7,   -1.2,   -1.4,   -1.8,   -2.2,   -3.0,   -3.3,  999.0,  999.0,  999.0,  999.0,  999.0,  999.0,  999.0,  999.0,  999.0,  999.0,  999.0,  999.0,  999.0,  999.0,  999.0,  999.0,  999.0,  999.0,  999.0,  999.0,  999.0,  999.0,  999.0,  999.0,  999.0,  999.0,  999.0,  999.0,  999.0,  999.0
2011/02/22 08:30,  999.0,    5.8,    7.0,    7.8,    9.2,  999.0,  999.0,  999.0,  999.0,    4.7,  999.0,  999.0,  999.0,    2.7,    2.1,    0.5,  999.0,    4.5,  999.0,  999.0,  999.0,    0.1,    1.0,    0.7,    0.4,    0.3,   -0.2,   -1.0,   -1.6,  999.0,   -0.4,   -0.4,  999.0,   -3.0,   -2.6,   -3.4,   -3.9,   -4.1,   -4.0,   -4.5,   -4.5,   -5.0,   -4.2,   -4.2,   -4.2,   -4.1,   -4.4,   -4.5,   -4.9,   -5.4,   -4.8,   -4.1,   -2.5,   -2.0,   -2.6,   -2.9,   -2.0,   -0.2,    1.4,    1.6,    0.7,   -0.9,   -2.1,   -2.6,   -2.7,   -2.9,   -3.2,   -3.7,   -4.1,  999.0,  999.0,  999.0,  999.0,  999.0,  999.0,  999.0,  999.0,  999.0,  999.0,  999.0,  999.0,  999.0,  999.0,  999.0,  999.0,  999.0,  999.0,  999.0,  999.0,  999.0,  999.0,  999.0,  999.0,  999.0,  999.0,  999.0,  999.0,  999.0
2011/02/22 08:40,    2.8,    5.1,    6.3,    7.4,    8.9,    9.9,  999.0,  999.0,   -0.1,   -0.0,    0.9,  999.0,    0.0,    1.6,    1.7,    0.6,    3.4,    4.0,    3.5,    1.4,    1.1,    0.7,    1.0,    0.8,    0.6,    0.3,   -0.2,   -0.8,   -1.7,   -2.3,   -2.9,  999.0,  999.0,   -1.7,  999.0,  999.0,  999.0,   -5.3,   -5.3,   -5.1,   -5.3,   -4.8,   -4.9,   -5.0,   -5.0,   -5.1,   -5.2,   -5.1,   -5.3,   -5.6,   -5.2,   -4.7,   -3.7,   -2.9,   -3.2,   -3.7,   -2.8,   -1.0,    0.3,   -0.5,   -2.4,   -3.7,   -3.3,   -2.3,   -2.3,   -2.8,   -3.7,   -4.4,   -4.7,   -5.1,   -5.0,   -5.4,  999.0,  999.0,  999.0,  999.0,  999.0,  999.0,  999.0,  999.0,  999.0,  999.0,  999.0,  999.0,  999.0,  999.0,  999.0,  999.0,  999.0,  999.0,  999.0,  999.0,  999.0,  999.0,  999.0,  999.0,  999.0,  999.0
2011/02/22 08:50,    4.0,    5.4,    6.0,  999.0,  999.0,  999.0,    0.4,    0.3,    0.0,    0.1,    0.0,    0.0,    0.3,    1.7,    2.0,    1.2,    3.1,    3.9,    3.4,    1.2,    1.2,    0.7,    0.5,    0.3,   -0.0,   -0.1,   -0.2,   -0.9,  999.0,  999.0,   -3.3,   -3.4,  999.0,  999.0,  999.0,   -4.9,   -4.9,   -5.2,   -5.3,   -5.2,   -4.4,  999.0,  999.0,   -4.6,   -4.7,   -5.2,   -4.5,   -4.0,   -4.4,   -4.7,   -4.4,   -4.0,   -3.3,   -2.9,   -3.2,   -2.5,   -0.3,    0.5,   -0.2,   -1.8,   -2.7,   -1.7,   -1.2,   -1.4,   -1.7,   -2.6,   -3.1,   -3.7,   -4.2,   -4.6,   -4.8,   -4.7,  999.0,  999.0,  999.0,  999.0,  999.0,  999.0,  999.0,  999.0,  999.0,  999.0,  999.0,  999.0,  999.0,  999.0,  999.0,  999.0,  999.0,  999.0,  999.0,  999.0,  999.0,  999.0,  999.0,  999.0,  999.0,  999.0
2011/02/22 09:00,    3.2,    5.3,  999.0,  999.0,  999.0,  999.0,  999.0,    0.2,    0.1,    5.3,  999.0,    8.6,    9.1,    8.2,    3.7,    4.2,    4.3,  999.0,  999.0,    3.2,    3.7,    2.5,    2.3,    1.4,    0.9,    0.1,   -0.6,   -1.9,   -3.6,   -3.8,   -4.6,   -5.3,   -5.6,   -6.4,   -6.7,   -6.4,   -6.4,   -6.6,   -6.6,   -6.6,   -6.5,   -5.2,   -4.5,   -4.9,   -5.3,   -5.2,   -4.2,   -3.6,   -4.0,   -4.4,   -4.4,   -3.9,   -3.2,   -3.0,   -3.0,   -2.0,   -0.5,    0.4,    0.3,    0.2,   -0.2,   -0.2,   -0.2,   -0.5,   -1.0,   -1.5,   -2.5,   -3.0,   -3.1,   -3.1,   -3.5,   -3.9,  999.0,  999.0,  999.0,  999.0,  999.0,  999.0,  999.0,  999.0,  999.0,  999.0,  999.0,  999.0,  999.0,  999.0,  999.0,  999.0,  999.0,  999.0,  999.0,  999.0,  999.0,  999.0,  999.0,  999.0,  999.0,  999.0
2011/02/22 09:10,  999.0,  999.0,  999.0,  999.0,  999.0,  999.0,  999.0,  999.0,   10.6,    4.3,    5.4,    6.9,    5.2,    3.5,    0.1,    3.2,    4.2,    4.9,    4.0,    3.6,    2.4,    1.4,    0.8,    0.5,    0.7,    0.2,   -0.0,   -1.4,   -3.1,   -3.9,   -4.6,   -4.7,   -4.4,   -4.8,   -5.8,   -6.1,   -5.4,   -5.1,   -4.6,   -4.6,   -5.2,   -5.6,   -5.3,   -5.4,   -5.3,   -5.3,   -4.6,   -3.4,   -3.6,   -3.6,   -3.1,   -2.0,   -1.2,   -1.0,   -0.2,    0.5,    1.7,    2.5,    3.3,    3.5,    2.7,    1.4,    1.0,    0.6,   -0.4,   -1.3,   -2.0,   -2.1,   -2.0,  999.0,  999.0,  999.0,  999.0,  999.0,  999.0,  999.0,  999.0,  999.0,  999.0,  999.0,  999.0,  999.0,  999.0,  999.0,  999.0,  999.0,  999.0,  999.0,   -0.0,  999.0,  999.0,  999.0,  999.0,  999.0,  999.0,  999.0,  999.0,  999.0
2011/02/22 09:20,    2.3,    5.0,    6.6,  999.0,    5.1,    5.2,    4.8,  999.0,   10.4,    9.8,    9.0,    7.4,    6.4,    4.5,    2.1,    3.0,    4.3,    4.7,    5.2,    5.1,    4.0,    3.1,    2.0,    2.0,    1.7,    1.5,    1.6,    0.4,   -0.7,   -1.2,   -1.7,   -1.9,   -2.9,   -3.5,   -3.6,   -4.0,   -4.1,   -3.8,   -3.9,   -3.9,   -3.8,   -5.1,  999.0,  999.0,   -3.2,   -3.5,   -3.4,   -3.4,   -3.6,   -3.8,   -3.6,   -3.4,   -2.9,   -2.6,   -2.3,   -1.0,    1.0,  999.0,  999.0,  999.0,    3.2,    1.6,    0.6,   -0.3,   -1.2,   -1.9,   -2.4,   -2.3,   -3.0,   -3.1,   -3.0,  999.0,  999.0,  999.0,  999.0,  999.0,  999.0,  999.0,  999.0,  999.0,  999.0,  999.0,  999.0,  999.0,  999.0,  999.0,  999.0,   -0.1,    0.1,   -0.0,   -0.0,   -0.1,    0.1,  999.0,  999.0,  999.0,  999.0,  999.0
2011/02/22 09:30,  999.0,  999.0,  999.0,  999.0,    5.3,    6.2,  999.0,  999.0,   10.8,   10.7,    9.7,    8.9,    9.1,    5.4,  999.0,  999.0,    5.0,    5.0,    5.3,    6.3,    5.9,    5.2,    3.2,    3.3,    1.8,    1.3,    0.4,    0.5,   -0.6,    0.0,   -0.8,   -0.3,   -1.0,   -3.6,  999.0,   -4.6,   -5.9,   -3.4,   -3.5,   -3.5,   -3.7,  999.0,  999.0,   -5.6,   -5.5,   -4.6,   -5.7,   -5.5,  999.0,  999.0,   -3.4,   -3.1,   -3.1,  999.0,   -2.0,   -0.8,   -0.4,   -0.3,   -0.2,   -0.8,  999.0,  999.0,    0.8,   -1.0,   -3.2,   -3.5,   -3.3,   -2.9,   -3.2,   -2.9,   -3.4,  999.0,  999.0,  999.0,  999.0,  999.0,  999.0,  999.0,  999.0,  999.0,  999.0,  999.0,  999.0,  999.0,  999.0,  999.0,    0.0,   -0.1,   -0.1,    0.0,    0.0,   -0.0,    0.0,  999.0,   -0.0,  999.0,  999.0,  999.0
2011/02/22 09:40,    3.1,  999.0,  999.0,   -0.2,   -0.3,   -0.3,   -0.2,   -0.1,    0.1,   -0.0,   -0.2,   -0.1,   -0.2,    0.1,  999.0,    0.2,    0.7,  999.0,  999.0,  999.0,    6.1,    5.6,    4.3,  999.0,    1.0,   -2.2,   -3.7,   -3.1,   -3.9,   -3.9,   -4.5,   -4.4,   -4.5,   -4.7,   -5.9,   -6.4,   -5.3,   -5.1,  999.0,  -10.4,  -10.2,  999.0,  999.0,   -6.6,   -4.9,  999.0,  999.0,  999.0,  999.0,  999.0,  999.0,  999.0,   -0.4,    1.2,    2.2,    3.1,    4.1,    4.6,    4.9,    4.7,    4.5,    4.3,    3.5,    3.3,  999.0,  999.0,  999.0,  999.0,  999.0,  999.0,  999.0,  999.0,  999.0,  999.0,  999.0,   -0.5,  999.0,  999.0,  999.0,  999.0,  999.0,  999.0,  999.0,  999.0,    0.1,  999.0,  999.0,   -0.1,   -0.0,    0.0,  999.0,    0.0,   -0.3,    0.1,  999.0,  999.0,  999.0,   -0.0
2011/02/22 09:50,  999.0,    1.8,    1.7,    3.5,  999.0,    0.2,    0.1,    0.1,   -0.0,    0.0,    0.1,    0.0,    0.1,    0.5,    1.2,    0.4,  999.0,  999.0,  999.0,  999.0,  999.0,  999.0,    3.4,    2.2,    1.4,    1.0,    0.9,   -0.6,   -1.8,   -2.4,   -2.6,   -2.9,   -3.2,  999.0,  999.0,  999.0,  999.0,  999.0,   -8.1,   -8.0,  999.0,  999.0,  999.0,  999.0,  999.0,   -1.8,   -1.7,   -1.2,   -1.2,   -1.4,   -1.0,   -0.8,    0.2,    1.6,    2.8,    3.5,    4.4,    5.2,    5.1,    4.2,    3.3,    3.2,    3.9,    5.1,    5.1,    4.5,  999.0,  999.0,  999.0,  999.0,  999.0,  999.0,  999.0,  999.0,  999.0,  999.0,  999.0,  999.0,  999.0,  999.0,  999.0,  999.0,  999.0,  999.0,  999.0,    0.0,  999.0,   -0.0,   -0.1,   -0.0,    0.0,    0.1,  999.0,   -0.1,  999.0,  999.0,  999.0,   -0.2
2011/02/22 10:00,   -1.3,    1.4,    4.2,  999.0,    1.9,  999.0,    4.4,    4.6,  999.0,  999.0,    3.4,    3.4,  999.0,  999.0,    1.2,  999.0,    5.1,    6.6,  999.0,  999.0,  999.0,    4.7,    4.1,    3.4,    2.8,  999.0,  999.0,    1.4,    0.2,   -0.6,   -1.0,   -1.0,   -1.8,   -1.7,   -3.2,   -3.4,   -4.1,   -5.1,   -6.0,   -5.8,   -5.5,  999.0,  999.0,  999.0,   -2.7,   -2.1,   -1.7,   -1.5,   -1.2,   -1.6,   -1.6,   -1.2,   -0.1,    1.4,    2.6,    3.3,    3.9,    4.7,    5.2,    4.8,    4.4,    3.3,  999.0,    5.9,    4.8,    4.2,    4.0,    3.5,    2.6,  999.0,  999.0,  999.0,  999.0,  999.0,  999.0,  999.0,  999.0,  999.0,  999.0,  999.0,  999.0,  999.0,  999.0,  999.0,  999.0,    0.0,  999.0,   -0.1,   -0.0,  999.0,   -0.0,  999.0,   -0.3,    0.0,    0.1,  999.0,  999.0,   -0.0
2011/02/22 10:10,  999.0,  999.0,    6.4,    7.0,    8.9,    9.5,    9.7,   10.9,   10.4,    9.6,    9.3,    8.2,    6.6,    5.1,    5.2,    5.8,    7.5,    8.1,    9.1,    8.2,    6.6,    5.0,    5.1,    4.8,    3.3,    3.1,    3.0,    2.8,    1.3,    0.4,   -0.6,   -1.6,   -2.6,   -3.0,   -3.6,   -4.3,   -4.7,   -4.1,   -4.9,   -4.0,   -2.2,  999.0,  999.0,  999.0,  999.0,   -1.8,   -1.1,   -1.1,   -1.6,   -1.6,   -1.7,   -1.2,    0.8,    2.3,    3.2,    3.8,    4.3,    4.6,    5.0,    4.7,    4.1,    3.1,    2.8,  999.0,    5.7,    4.6,  999.0,    1.8,    2.0,    1.8,  999.0,  999.0,  999.0,  999.0,  999.0,  999.0,  999.0,  999.0,  999.0,  999.0,  999.0,  999.0,  999.0,   -0.2,  999.0,   -0.2,  999.0,    0.1,    0.1,    0.1,   -0.1,    0.0,    0.0,   -0.1,  999.0,  999.0,  999.0,   -0.2
2011/02/22 10:20,    4.6,    5.3,    6.5,    7.2,    8.4,    1.0,   -1.4,    5.9,    0.8,    8.3,    7.8,    6.8,    5.4,    3.8,    3.8,    5.3,    6.8,    6.0,    6.6,    6.5,    6.6,    4.3,    3.0,    2.9,    1.3,    0.7,   -0.0,   -0.7,   -1.3,   -1.5,   -1.8,   -1.9,   -2.6,   -2.8,   -2.5,   -3.3,   -3.4,   -4.1,   -4.5,   -4.3,   -3.3,   -2.5,  999.0,  999.0,  999.0,   -0.9,    1.2,    1.0,   -0.1,   -0.7,   -1.4,   -0.5,    0.8,    2.0,    3.4,  999.0,    4.6,    4.3,  999.0,    3.2,    2.8,    2.5,  999.0,    3.0,  999.0,    2.3,  999.0,  999.0,    0.6,  999.0,  999.0,  999.0,  999.0,  999.0,  999.0,  999.0,  999.0,  999.0,  999.0,  999.0,  999.0,  999.0,  999.0,  999.0,   -0.1,    0.1,  999.0,    0.0,    0.0,  999.0,   -0.1,    0.1,  999.0,  999.0,  999.0,  999.0,    0.2,  999.0
2011/02/22 10:30,    3.4,    5.1,    6.0,    7.1,    8.3,    8.9,    8.8,   10.0,    8.2,    6.5,    6.7,    6.6,    5.2,    4.0,    3.8,    5.9,    7.3,    7.0,    7.9,    6.2,    5.6,    4.5,    3.4,    2.7,    1.6,    0.8,   -0.3,   -0.7,   -0.9,   -0.9,   -1.4,   -2.3,   -2.6,   -3.0,   -3.3,   -3.9,   -4.7,   -5.3,   -5.9,   -5.3,  999.0,  999.0,  999.0,  999.0,  999.0,   -1.3,    0.2,    1.1,    1.7,    1.0,    0.6,    1.2,    2.1,    3.2,    4.0,    4.2,    3.8,    3.7,    3.5,    3.2,    0.6,  999.0,  999.0,  999.0,  999.0,   -0.7,   -1.4,  999.0,  999.0,  999.0,  999.0,  999.0,  999.0,  999.0,  999.0,  999.0,  999.0,  999.0,  999.0,  999.0,  999.0,  999.0,  999.0,  999.0,  999.0,  999.0,  999.0,   -0.1,   -0.0,    0.0,   -0.0,   -0.1,  999.0,  999.0,  999.0,  999.0,  999.0,    0.1
2011/02/22 10:40,  999.0,  999.0,    6.5,    6.9,    7.8,    8.5,    9.4,   10.6,    8.6,    6.9,    7.3,    8.3,    7.0,    4.9,    3.8,    4.2,    5.4,    5.8,    6.4,    6.0,    5.0,    4.1,    3.8,    3.5,    2.7,    2.5,    1.7,    0.9,   -0.2,    0.7,    0.9,   -0.4,   -1.5,    0.9,    1.0,   -4.1,   -4.7,  -10.4,  -10.9,  -12.1,  999.0,  999.0,  999.0,  999.0,  999.0,   -1.2,   -0.6,  999.0,  999.0,  999.0,    1.7,    2.1,    3.6,    4.5,    4.8,    4.1,    2.8,    1.9,    1.2,    0.2,    0.1,   -0.2,   -0.7,  999.0,  999.0,  999.0,  999.0,   -2.8,   -2.0,  999.0,  999.0,  999.0,  999.0,  999.0,  999.0,  999.0,  999.0,  999.0,  999.0,  999.0,  999.0,  999.0,  999.0,  999.0,  999.0,  999.0,  999.0,   -0.1,   -0.0,  999.0,   -0.1,    0.0,  999.0,  999.0,  999.0,  999.0,  999.0,  999.0
2011/02/22 10:50,  999.0,    3.9,    4.3,    4.6,    5.1,    5.5,    3.9,  999.0,  999.0,    7.7,    7.8,    8.4,    9.5,    9.3,    8.6,    7.5,    6.7,    7.7,    8.3,    7.8,    7.2,    6.2,    5.4,    4.3,    3.7,    3.2,    2.5,    2.2,    2.3,    2.4,    2.4,    2.5,    1.8,    1.0,    1.5,  999.0,    7.0,    2.7,    0.9,    2.7,    2.2,    0.7,   -0.0,  999.0,  999.0,   -0.2,    0.3,    0.0,    0.1,   -0.1,   -0.1,    0.0,    0.0,    0.1,   -0.0,   -0.0,   -0.1,   -0.1,   -0.2,   -0.1,   -0.4,  999.0,  999.0,  999.0,  999.0,  999.0,  999.0,  999.0,  999.0,  999.0,  999.0,  999.0,  999.0,  999.0,  999.0,  999.0,  999.0,  999.0,  999.0,  999.0,  999.0,  999.0,  999.0,  999.0,  999.0,  999.0,  999.0,  999.0,   -0.1,  999.0,  999.0,  999.0,  999.0,  999.0,  999.0,  999.0,  999.0,  999.0
2011/02/22 11:00,    2.7,    4.3,    4.5,    5.2,  999.0,  999.0,  999.0,  999.0,  999.0,  999.0,  999.0,  999.0,   10.6,   10.7,   10.4,    9.3,    8.4,    7.4,    7.6,    8.7,    8.5,    7.7,  999.0,  999.0,  999.0,  999.0,  999.0,  999.0,    6.3,  999.0,  999.0,  999.0,  999.0,  999.0,    0.0,   -0.5,   -0.7,   -0.5,   -1.7,   -0.9,   -0.7,   -1.2,   -0.8,    0.0,    0.2,    0.1,    0.1,    0.1,    0.1,   -0.0,    0.1,    0.1,    0.2,    0.1,    0.0,    0.1,   -0.0,   -0.0,   -0.3,   -0.6,   -0.4,   -0.1,  999.0,  999.0,  999.0,  999.0,  999.0,  999.0,  999.0,  999.0,  999.0,  999.0,  999.0,  999.0,  999.0,  999.0,  999.0,  999.0,  999.0,  999.0,  999.0,  999.0,  999.0,  999.0,  999.0,  999.0,  999.0,  999.0,  999.0,  999.0,  999.0,  999.0,  999.0,  999.0,  999.0,  999.0,  999.0,  999.0
2011/02/22 11:10,  999.0,    3.4,    3.2,    6.2,  999.0,  999.0,    3.8,    5.2,    5.0,  999.0,  999.0,  999.0,    6.1,    7.9,  999.0,    4.5,    4.2,    3.2,    3.9,  999.0,    1.8,  999.0,  999.0,  999.0,    2.7,    2.1,    1.4,  999.0,  999.0,    0.2,    0.7,    1.2,    1.4,    0.6,    0.0,   -0.3,   -0.3,   -0.7,   -1.8,   -2.0,   -2.0,   -0.5,    0.0,    0.0,    0.1,   -0.0,   -0.0,   -0.0,    0.0,    0.1,    0.1,    0.0,    0.2,    0.1,   -0.2,    0.1,   -0.1,   -0.0,   -0.1,   -0.1,   -0.6,   -0.0,   -0.2,  999.0,  999.0,  999.0,  999.0,  999.0,  999.0,  999.0,  999.0,  999.0,  999.0,  999.0,  999.0,  999.0,  999.0,  999.0,  999.0,  999.0,  999.0,  999.0,  999.0,  999.0,  999.0,  999.0,  999.0,  999.0,  999.0,  999.0,  999.0,  999.0,   -0.1,  999.0,  999.0,  999.0,  999.0,  999.0
2011/02/22 11:20,  999.0,    5.6,  999.0,  999.0,  999.0,  999.0,  999.0,    1.3,    7.0,  999.0,    4.8,    3.7,    5.0,    6.1,    2.1,    2.5,    3.0,    0.5,    4.3,  999.0,  999.0,    4.2,    5.2,    3.9,    2.9,    2.0,    1.4,    0.6,   -0.3,   -0.4,    0.4,    0.9,    1.0,    0.7,    0.4,   -0.0,   -0.4,   -0.9,   -2.0,   -1.5,   -0.9,   -0.1,   -0.0,   -0.0,   -0.0,    0.0,    0.0,    0.0,    0.0,    0.1,    0.0,    0.0,    0.1,    0.1,    0.0,   -0.1,   -0.1,    0.0,   -0.1,   -0.1,   -0.3,    0.1,    0.3,  999.0,  999.0,  999.0,  999.0,  999.0,  999.0,  999.0,  999.0,  999.0,  999.0,  999.0,  999.0,  999.0,  999.0,  999.0,  999.0,  999.0,  999.0,  999.0,  999.0,  999.0,  999.0,  999.0,  999.0,    0.0,   -0.1,   -0.3,    0.1,  999.0,  999.0,   -0.0,  999.0,  999.0,  999.0,  999.0
2011/02/22 11:30,  999.0,  999.0,  999.0,    2.9,    3.7,    2.3,    5.7,  999.0,    7.3,    9.2,    9.4,    9.2,   10.4,   11.2,  999.0,  999.0,  999.0,    8.3,    8.1,    7.3,    6.9,    6.6,    4.1,    3.6,    2.9,    2.4,    1.7,    0.8,   -0.1,   -0.6,   -0.2,    0.3,    0.8,    0.9,    0.8,    0.2,   -0.1,   -0.3,   -0.6,   -0.7,   -0.3,   -0.1,    0.0,   -0.1,    0.0,   -0.0,   -0.0,   -0.0,    0.0,    0.0,    0.0,   -0.0,    0.1,   -0.0,   -0.2,   -0.3,   -0.1,    0.0,   -0.0,   -0.2,   -0.1,   -0.1,  999.0,  999.0,  999.0,  999.0,  999.0,  999.0,  999.0,  999.0,  999.0,  999.0,  999.0,  999.0,  999.0,  999.0,  999.0,  999.0,  999.0,  999.0,  999.0,  999.0,  999.0,  999.0,  999.0,  999.0,  999.0,  999.0,  999.0,  999.0,   -0.1,    0.0,  999.0,  999.0,  999.0,  999.0,  999.0,  999.0
2011/02/22 11:40,    0.2,    0.5,    0.8,    1.5,    2.2,    4.2,    4.9,    7.5,  999.0,    4.1,    4.2,    5.8,    7.2,    6.6,  999.0,  999.0,  999.0,    7.2,    6.9,    5.6,    6.1,    5.8,    5.1,    4.5,    4.2,    3.2,    2.3,    1.3,    0.3,   -0.8,   -1.1,  999.0,   -1.0,   -0.5,   -0.2,   -0.1,   -0.0,   -0.1,   -0.1,   -0.4,   -0.5,   -0.4,   -0.1,    0.0,    0.0,    0.1,    0.2,    0.1,    0.0,    0.0,    0.0,    0.1,    0.0,   -0.2,   -0.3,   -0.1,   -0.1,   -0.1,   -0.2,   -0.3,   -0.1,   -0.4,  999.0,  999.0,  999.0,   -6.5,  999.0,  999.0,  999.0,  999.0,  999.0,  999.0,  999.0,  999.0,  999.0,  999.0,  999.0,  999.0,  999.0,  999.0,  999.0,  999.0,  999.0,  999.0,  999.0,  999.0,  999.0,  999.0,  999.0,  999.0,  999.0,  999.0,  999.0,  999.0,  999.0,  999.0,  999.0,  999.0
2011/02/22 11:50,    0.5,    1.1,    0.8,    0.5,    0.2,    3.0,    4.7,  999.0,  999.0,    0.4,   -0.1,    0.5,    0.9,    1.1,   -0.1,   -0.1,    0.0,    3.0,    3.2,    1.2,    1.6,  999.0,    3.0,    2.8,  999.0,    3.7,    2.4,    1.5,    0.4,   -0.8,   -1.6,   -2.0,   -1.8,   -0.9,   -0.6,   -0.3,   -0.1,   -0.1,   -0.2,   -0.6,   -1.3,   -1.0,   -0.7,   -0.0,   -0.0,    0.1,    0.0,    0.1,    0.1,    0.0,    0.0,   -0.0,   -0.0,   -0.0,   -0.3,   -0.6,  999.0,   -0.2,    0.1,   -0.2,   -0.2,   -0.2,   -0.8,  999.0,  999.0,    0.0,  999.0,  999.0,  999.0,  999.0,  999.0,  999.0,  999.0,  999.0,  999.0,  999.0,  999.0,  999.0,  999.0,  999.0,  999.0,  999.0,  999.0,  999.0,  999.0,  999.0,  999.0,  999.0,    0.0,  999.0,    0.2,  999.0,  999.0,  999.0,  999.0,  999.0,  999.0,  999.0
2011/02/22 12:00,    0.1,    0.6,    0.6,    2.5,    2.7,    3.1,  999.0,  999.0,    0.1,    0.0,    0.0,   -0.0,    0.0,    0.0,    0.0,  999.0,   -0.0,    1.3,   -0.0,    0.6,    0.6,  999.0,  999.0,  999.0,    4.6,    3.7,    2.8,    1.9,    0.8,   -0.5,   -1.0,   -2.3,   -2.6,   -1.4,   -0.9,   -0.8,   -0.3,   -0.1,   -0.4,   -0.8,   -0.6,   -0.3,   -0.1,   -0.0,   -0.0,   -0.0,   -0.0,    0.0,    0.0,   -0.0,    0.0,    0.0,   -0.1,   -0.1,   -0.2,   -0.9,    0.1,    0.0,    0.0,   -0.0,   -0.1,    0.1,   -0.1,   -0.2,    0.1,  999.0,  999.0,   -0.1,  999.0,  999.0,  999.0,  999.0,  999.0,  999.0,  999.0,  999.0,  999.0,  999.0,  999.0,  999.0,  999.0,  999.0,  999.0,  999.0,  999.0,  999.0,  999.0,    0.1,    0.0,  999.0,    0.1,  999.0,  999.0,  999.0,  999.0,  999.0,  999.0,  999.0
2011/02/22 12:10,    0.7,    1.9,    0.2,    1.4,    0.5,  999.0,  999.0,    0.0,  999.0,    0.0,    0.0,    0.0,    0.0,    0.0,   -0.0,    0.0,  999.0,  999.0,    0.0,   -0.0,  999.0,  999.0,    3.0,    5.5,    5.0,    3.8,    3.6,    2.6,    1.7,    0.8,   -0.5,   -1.7,   -2.6,   -1.6,   -0.6,   -0.6,   -0.2,   -0.1,   -0.2,   -0.2,   -0.3,   -0.1,   -0.1,   -0.1,    0.0,    0.1,    0.1,    0.0,    0.1,    0.0,    0.0,    0.1,    0.0,   -0.1,   -0.5,  999.0,    0.1,    0.0,    0.1,    0.1,   -0.0,   -0.0,    0.1,   -0.0,   -0.1,    0.1,    0.0,  999.0,  999.0,  999.0,  999.0,  999.0,  999.0,  999.0,  999.0,  999.0,  999.0,  999.0,  999.0,  999.0,  999.0,  999.0,  999.0,  999.0,  999.0,  999.0,  999.0,    0.1,    0.0,   -0.0,    0.2,  999.0,  999.0,    0.1,  999.0,  999.0,  999.0,  999.0
2011/02/22 12:20,    0.4,    0.2,    0.2,    0.6,    0.4,    1.0,    0.5,  999.0,    0.0,    0.0,    0.1,    0.0,    0.0,   -0.0,    0.1,    0.4,    0.9,    0.0,    0.7,    0.4,    0.1,    0.1,    0.0,  999.0,    4.6,    5.3,    4.6,    3.3,    2.0,    1.2,    0.1,   -0.7,   -1.8,   -1.8,   -0.4,   -0.2,   -0.1,   -0.2,   -0.2,   -0.0,   -0.1,   -0.1,   -0.1,   -0.0,   -0.0,    0.0,    0.1,   -0.0,    0.0,    0.1,    0.0,   -0.0,   -0.0,   -0.1,   -0.5,   -0.1,   -0.1,    0.0,   -0.0,    0.1,    0.0,   -0.1,    0.1,   -0.0,    0.0,    0.1,    0.1,  999.0,   -0.0,  999.0,  999.0,  999.0,  999.0,  999.0,  999.0,  999.0,  999.0,  999.0,  999.0,  999.0,  999.0,  999.0,  999.0,  999.0,  999.0,   -0.2,  999.0,    0.0,    0.1,    0.1,   -0.1,    0.0,    0.0,  999.0,  999.0,  999.0,  999.0,  999.0
2011/02/22 12:30,  999.0,  999.0,    2.0,    2.4,    2.5,  999.0,    4.5,    7.1,   10.2,    9.3,   10.1,   11.4,    6.2,    3.5,    3.1,  999.0,    4.0,    3.2,    2.7,    1.1,    1.1,  999.0,  999.0,  999.0,  999.0,    5.5,    4.5,    3.1,    1.8,    0.6,   -0.2,   -1.2,   -1.9,   -1.2,   -0.3,   -0.0,   -0.2,   -0.2,   -0.1,    0.0,   -0.0,    0.0,   -0.1,    0.1,   -0.0,    0.1,   -0.1,    0.0,   -0.1,    0.1,    0.0,    0.0,    0.0,    0.0,   -0.2,   -0.8,   -0.1,   -0.0,   -0.0,   -0.0,    0.1,   -0.0,    0.0,    0.0,   -0.1,    0.1,  999.0,  999.0,    0.1,  999.0,  999.0,  999.0,  999.0,  999.0,  999.0,  999.0,  999.0,  999.0,  999.0,  999.0,  999.0,  999.0,  999.0,  999.0,  999.0,  999.0,  999.0,    0.2,    0.0,  999.0,  999.0,  999.0,  999.0,  999.0,  999.0,  999.0,  999.0,  999.0
2011/02/22 12:40,  999.0,  999.0,  999.0,    4.7,    4.7,    5.8,    7.4,    9.2,   10.7,   12.1,    8.6,   11.2,  999.0,  999.0,    5.3,    8.0,    8.6,    6.1,    8.1,    4.8,  999.0,  999.0,  999.0,    5.7,    6.1,    5.9,    5.3,    3.8,  999.0,    1.5,    0.3,   -0.6,   -1.7,   -1.1,   -0.1,   -0.0,   -0.0,   -0.2,   -0.0,   -0.0,    0.1,   -0.0,   -0.1,   -0.0,    0.0,    0.1,   -0.0,    0.1,    0.1,    0.0,    0.0,    0.0,   -0.0,   -0.2,   -0.6,   -0.1,    0.0,   -0.1,   -0.0,    0.1,    0.1,    0.1,    0.3,    0.1,   -0.0,   -0.1,    0.0,  999.0,  999.0,  999.0,  999.0,  999.0,  999.0,  999.0,  999.0,  999.0,  999.0,  999.0,  999.0,  999.0,  999.0,  999.0,  999.0,  999.0,  999.0,  999.0,  999.0,  999.0,  999.0,   -0.0,   -0.0,  999.0,  999.0,  999.0,  999.0,  999.0,  999.0,  999.0
2011/02/22 12:50,  999.0,    3.5,    3.3,    5.1,    5.6,    6.4,    8.3,    9.0,   10.9,   11.3,   12.4,   13.0,   12.3,   11.0,   10.1,   10.2,   10.6,   11.0,    9.2,  999.0,  999.0,    7.1,    8.1,    7.8,    7.7,    6.8,    5.3,    4.6,    3.6,    2.2,    1.1,   -0.3,   -1.1,   -0.5,   -0.0,    0.2,   -0.1,   -0.2,   -0.1,   -0.1,   -0.5,   -0.7,   -0.2,    0.0,    0.0,    0.0,    0.2,    0.4,    0.1,   -0.1,    0.1,    0.1,   -0.0,   -0.3,   -0.8,   -0.1,    0.0,   -0.2,   -0.1,    0.1,    0.0,   -0.0,   -0.0,  999.0,    0.0,    0.0,  999.0,  999.0,  999.0,  999.0,  999.0,  999.0,  999.0,  999.0,  999.0,  999.0,  999.0,  999.0,  999.0,  999.0,  999.0,  999.0,  999.0,  999.0,  999.0,  999.0,  999.0,  999.0,  999.0,  999.0,   -0.2,  999.0,  999.0,  999.0,  999.0,  999.0,  999.0,  999.0
2011/02/22 13:00,    2.3,    2.7,    3.5,    4.2,    4.5,    6.6,    7.0,   10.6,    6.8,    5.7,    5.5,    4.4,    4.6,    5.2,   10.1,    8.9,    6.6,    8.1,    6.8,    1.4,    0.1,    5.9,    7.3,    6.4,    6.8,    6.3,    5.6,    4.8,    4.1,    3.0,    1.8,    1.0,   -0.0,    0.0,    0.3,    0.6,    0.3,   -0.2,   -0.1,   -0.2,   -0.5,   -0.7,   -0.2,   -0.0,    0.0,    0.1,    0.4,    0.2,    0.1,    0.1,    0.1,    0.1,   -0.0,   -0.4,   -0.5,   -0.1,   -0.1,   -0.1,   -0.1,   -0.1,   -0.1,    0.0,   -0.0,    0.2,    0.1,   -0.1,  999.0,  999.0,   -0.2,  999.0,  999.0,  999.0,  999.0,  999.0,  999.0,  999.0,  999.0,  999.0,  999.0,  999.0,  999.0,  999.0,  999.0,  999.0,  999.0,  999.0,  999.0,  999.0,  999.0,    0.1,  999.0,  999.0,  999.0,  999.0,  999.0,  999.0,  999.0,  999.0
2011/02/22 13:10,    1.0,    2.4,    3.3,    3.4,    4.2,  999.0,    5.9,    5.4,  999.0,  999.0,    3.1,    5.3,    5.8,    6.0,    4.8,    3.6,    3.9,    4.0,    4.7,    4.6,    2.5,  999.0,  999.0,    4.2,    6.6,  999.0,    4.7,    4.2,    3.7,    2.8,    2.2,    1.4,    1.0,    1.2,    1.5,    0.9,    0.2,   -0.1,   -0.1,   -0.2,   -0.3,   -0.2,    0.3,    0.3,    0.1,    0.2,    0.0,    0.0,    0.1,    0.1,    0.4,   -0.0,   -0.2,   -0.3,   -0.4,   -0.1,   -0.1,   -0.2,   -0.1,    0.0,   -0.1,   -0.0,    0.1,  999.0,  999.0,   -0.2,  999.0,  999.0,  999.0,  999.0,  999.0,  999.0,  999.0,  999.0,  999.0,  999.0,  999.0,  999.0,  999.0,  999.0,  999.0,  999.0,  999.0,  999.0,  999.0,  999.0,  999.0,    0.1,   -0.1,  999.0,  999.0,  999.0,  999.0,  999.0,  999.0,  999.0,  999.0,  999.0
2011/02/22 13:20,  999.0,  999.0,    2.8,    2.0,    1.3,    2.1,  999.0,  999.0,  999.0,  999.0,    3.7,    6.8,    6.4,    3.8,    6.0,  999.0,    5.0,    5.7,  999.0,    5.4,    4.5,    6.5,  999.0,    6.4,    5.4,    5.2,    4.8,  999.0,    3.2,    2.8,    2.2,    1.5,    0.8,    0.8,    1.1,    1.1,    0.2,   -0.2,   -0.3,   -0.2,   -0.4,   -0.2,   -0.0,    0.3,    0.4,    0.1,    0.0,    0.3,    0.1,    0.4,    0.2,   -0.2,   -0.5,   -0.5,   -0.6,   -0.1,   -0.1,   -0.1,    0.0,   -0.0,    0.0,   -0.0,    0.2,  999.0,  999.0,    0.0,  999.0,  999.0,  999.0,  999.0,  999.0,  999.0,  999.0,  999.0,  999.0,  999.0,  999.0,  999.0,    0.0,  999.0,  999.0,  999.0,  999.0,  999.0,    0.1,  999.0,    0.1,   -0.2,  999.0,  999.0,  999.0,    0.2,  999.0,  999.0,  999.0,  999.0,  999.0,  999.0
2011/02/22 13:30,  999.0,    3.2,    4.2,    3.3,    3.5,    4.4,    5.7,  999.0,  999.0,  999.0,    7.9,    7.5,    6.7,    6.6,    5.1,  999.0,  999.0,    5.9,    6.1,  999.0,  999.0,    6.7,  999.0,  999.0,  999.0,    5.6,    5.8,  999.0,  999.0,    3.5,    2.7,    2.2,    1.3,    1.4,    1.4,    0.9,    0.1,   -0.1,   -0.3,   -0.4,   -0.4,   -0.1,    0.1,    0.5,    0.4,    0.0,    0.1,    0.2,    0.1,    0.2,    0.3,   -0.0,   -0.1,   -0.7,   -0.5,   -0.1,   -0.0,   -0.0,   -0.1,   -0.0,   -0.1,   -0.0,   -0.0,  999.0,  999.0,    0.0,  999.0,  999.0,   -0.1,  999.0,  999.0,  999.0,  999.0,  999.0,  999.0,  999.0,  999.0,  999.0,  999.0,  999.0,  999.0,  999.0,  999.0,  999.0,  999.0,  999.0,    0.1,  999.0,    0.1,  999.0,   -0.1,  999.0,  999.0,  999.0,  999.0,  999.0,  999.0,  999.0
2011/02/22 13:40,    3.0,  999.0,    2.4,    2.9,    2.9,    4.1,    4.5,    5.6,  999.0,  999.0,  999.0,    3.4,    1.4,  999.0,    2.3,    0.1,  999.0,   -0.0,    0.0,   -0.0,  999.0,    0.1,   -0.0,  999.0,  999.0,  999.0,  999.0,  999.0,  999.0,    3.2,    3.1,    2.6,    1.7,    1.5,    1.1,    0.4,   -0.2,   -0.1,   -0.1,   -0.0,   -0.0,    0.1,    0.4,    0.7,    0.3,    0.1,    0.1,    0.1,    0.1,    0.1,    0.1,   -0.1,   -0.3,   -0.2,    0.0,    0.0,   -0.0,   -0.0,   -0.1,   -0.1,   -0.1,    0.0,   -0.1,  999.0,   -0.1,    0.1,  999.0,   -0.1,  999.0,    0.1,  999.0,  999.0,  999.0,  999.0,  999.0,  999.0,  999.0,  999.0,  999.0,  999.0,  999.0,  999.0,  999.0,  999.0,  999.0,  999.0,   -0.1,    0.0,    0.2,   -0.2,    0.1,  999.0,  999.0,  999.0,  999.0,  999.0,  999.0,    0.2
2011/02/22 13:50,  999.0,    2.6,    2.5,    2.9,    2.7,    3.9,  999.0,  999.0,  999.0,  999.0,  999.0,    3.1,    4.0,    3.5,  999.0,    1.2,    0.0,   -0.0,   -0.0,    0.1,    0.6,    0.1,  999.0,    0.0,  999.0,  999.0,    4.4,    3.7,    3.3,    3.0,    3.0,    2.8,    2.3,    1.8,    1.0,    0.5,   -0.1,   -0.0,   -0.0,   -0.1,   -0.0,    0.1,    0.3,    0.3,    0.2,    0.0,    0.1,    0.1,    0.0,    0.0,   -0.1,   -0.1,   -0.8,   -0.1,    0.0,    0.0,   -0.0,   -0.1,   -0.0,   -0.0,   -0.0,    0.0,    0.0,   -0.4,  999.0,    0.0,  999.0,   -0.1,  999.0,  999.0,  999.0,  999.0,  999.0,  999.0,  999.0,  999.0,  999.0,  999.0,  999.0,  999.0,  999.0,  999.0,  999.0,  999.0,  999.0,  999.0,  999.0,    0.0,   -0.1,   -0.0,    0.2,   -0.1,  999.0,  999.0,  999.0,  999.0,  999.0,  999.0
2011/02/22 14:00,    1.3,    2.1,    3.4,    4.4,    4.9,    4.7,    5.0,    6.2,  999.0,  999.0,  999.0,    1.8,    2.7,    1.0,   -0.1,   -0.0,   -0.1,    0.1,    0.1,   -0.1,   -0.0,  999.0,  999.0,    0.2,  999.0,  999.0,    6.4,    4.7,    3.9,    3.3,    2.9,    2.3,    1.9,    1.4,    1.0,    0.3,   -0.1,   -0.0,   -0.0,   -0.1,   -0.0,   -0.0,    0.1,    0.3,    0.1,    0.0,    0.1,    0.1,   -0.0,    0.0,   -0.0,   -0.1,   -0.4,   -0.3,   -0.1,    0.1,   -0.2,   -0.1,   -0.1,    0.0,   -0.1,   -0.0,   -0.0,    0.1,   -0.1,    0.1,   -0.1,  999.0,  999.0,  999.0,  999.0,  999.0,  999.0,  999.0,  999.0,  999.0,  999.0,  999.0,  999.0,  999.0,  999.0,  999.0,  999.0,  999.0,  999.0,  999.0,  999.0,    0.0,  999.0,   -0.1,    0.1,  999.0,  999.0,  999.0,  999.0,  999.0,  999.0,  999.0
2011/02/22 14:10,    1.7,    2.0,    3.1,    3.8,    4.6,    5.3,    7.0,    8.1,  999.0,  999.0,  999.0,  999.0,  999.0,  999.0,  999.0,  999.0,  999.0,  999.0,  999.0,  999.0,    4.0,  999.0,  999.0,  999.0,  999.0,  999.0,  999.0,  999.0,  999.0,    5.0,    4.5,    4.0,    3.4,  999.0,    2.4,    1.1,    0.1,    0.0,   -0.0,    0.0,    0.1,    0.0,    0.4,    0.3,    0.0,    0.0,    0.1,    0.1,    0.1,    0.0,   -0.2,   -0.4,   -0.7,   -0.4,   -0.0,    0.0,   -0.0,    0.1,   -0.0,   -0.1,   -0.1,   -0.0,    0.0,  999.0,  999.0,    0.1,  999.0,  999.0,  999.0,  999.0,  999.0,  999.0,  999.0,  999.0,  999.0,  999.0,  999.0,  999.0,  999.0,  999.0,  999.0,  999.0,  999.0,  999.0,  999.0,  999.0,  999.0,   -0.2,  999.0,  999.0,  999.0,  999.0,  999.0,  999.0,  999.0,  999.0,  999.0,  999.0
2011/02/22 14:20,    1.6,    2.4,    2.7,    2.6,    2.9,    4.0,    4.8,    6.8,    8.8,   12.0,  999.0,  999.0,   12.2,   12.5,   12.9,  999.0,    5.8,  999.0,  999.0,  999.0,  999.0,   -0.1,    0.0,    0.0,  999.0,  999.0,  999.0,  999.0,    5.4,    4.9,    5.0,    4.1,    3.7,    3.5,    2.7,    1.6,    0.2,    0.0,    0.0,   -0.1,    0.1,    0.0,    0.4,    0.7,    0.0,    0.1,   -0.1,   -0.0,    0.0,    0.0,   -0.1,   -0.3,   -0.2,   -0.0,   -0.0,   -0.1,   -0.0,   -0.1,   -0.0,   -0.1,   -0.4,   -0.3,   -0.1,  999.0,    0.1,    0.0,  999.0,  999.0,  999.0,  999.0,  999.0,  999.0,  999.0,  999.0,  999.0,  999.0,  999.0,  999.0,  999.0,  999.0,  999.0,  999.0,  999.0,  999.0,  999.0,  999.0,  999.0,    0.0,  999.0,  999.0,   -0.0,  999.0,  999.0,  999.0,  999.0,  999.0,  999.0,  999.0
2011/02/22 14:30,    2.2,  999.0,    2.4,    3.0,    2.9,    4.2,    5.8,  999.0,    7.7,    8.9,    9.1,   10.2,    8.1,    7.1,    7.7,  999.0,  999.0,    3.0,    0.0,    2.7,    2.2,    5.7,  999.0,  999.0,   11.1,  999.0,  999.0,  999.0,    5.9,    5.5,    5.7,    5.3,    4.4,    3.2,    2.2,    1.7,    0.0,   -0.0,   -0.1,   -0.1,   -0.1,   -0.0,    0.2,    0.5,    0.1,   -0.0,    0.3,    0.2,    0.1,   -0.0,   -0.4,   -0.4,   -0.2,   -0.0,   -0.0,   -0.0,    0.0,   -0.0,    0.0,   -0.0,   -0.2,   -1.8,  999.0,  999.0,  999.0,   -4.2,  -10.2,   -7.5,   -7.0,  -10.1,  -10.2,  -10.3,  -11.2,  -11.5,  -11.6,  -11.6,  999.0,  999.0,  999.0,  999.0,  999.0,  999.0,  999.0,  999.0,  999.0,  999.0,  999.0,  999.0,  999.0,  999.0,  999.0,  999.0,  999.0,  999.0,  999.0,  999.0,  999.0,  999.0
2011/02/22 14:40,    1.5,    2.8,    2.7,    3.0,    3.3,    4.2,    5.6,    8.4,   10.5,   11.8,   12.7,   13.1,   12.7,   13.3,   13.7,   13.6,   13.7,   12.5,    9.1,   10.2,   10.0,   10.2,    6.2,  999.0,    8.4,  999.0,    7.6,  999.0,    6.1,    4.8,  999.0,  999.0,    3.3,    2.2,    1.5,   -0.1,   -0.1,   -0.0,   -0.1,   -0.1,   -0.0,   -0.0,    0.3,    0.2,    0.1,    0.2,    0.1,    0.2,   -0.0,   -0.0,   -0.0,   -0.2,   -0.4,    0.3,   -0.4,   -1.1,   -1.3,   -0.3,   -0.9,   -1.0,   -1.6,   -2.6,  999.0,  999.0,  999.0,  999.0,  999.0,  999.0,  999.0,  999.0,  -10.6,  -11.2,  -11.3,  -11.8,  999.0,  -13.2,  -12.4,  -11.8,  999.0,  999.0,  999.0,  999.0,  999.0,  999.0,  999.0,  999.0,  999.0,  999.0,  999.0,  999.0,  999.0,  999.0,  999.0,  999.0,  999.0,  999.0,  999.0,  999.0
2011/02/22 14:50,    0.3,    1.7,    2.2,    3.3,    3.4,    4.7,    6.3,    8.5,   10.0,   11.8,   13.0,   12.8,   12.9,   13.5,   13.9,   14.2,   13.5,   12.5,   11.5,   11.1,   11.5,   12.0,   11.8,   11.2,  999.0,    8.6,  999.0,  999.0,    5.3,    4.8,    4.5,    3.7,    2.6,    1.5,    0.7,   -0.2,   -0.2,   -0.1,    0.0,   -0.0,   -0.0,    0.1,    0.4,    0.1,    0.0,    0.3,    0.3,    0.2,   -0.1,  999.0,    0.1,    0.1,   -0.2,   -0.1,   -0.2,   -0.2,   -0.3,   -0.3,   -0.1,   -0.1,   -0.3,   -0.7,   -0.8,   -1.5,  999.0,   -0.1,  999.0,  999.0,  999.0,  999.0,  999.0,  999.0,  999.0,  999.0,  999.0,  999.0,  999.0,  999.0,  999.0,  999.0,  999.0,  999.0,  999.0,  999.0,  999.0,  999.0,  999.0,  999.0,  999.0,  999.0,  999.0,  999.0,  999.0,  999.0,  999.0,  999.0,  999.0,  999.0
2011/02/22 15:00,    0.4,    2.2,    2.2,    2.3,    3.5,    5.2,    7.1,    9.3,   11.1,    9.1,   10.5,   11.7,   11.7,  999.0,   13.0,   14.0,   13.4,   11.9,   11.2,   10.3,    9.3,   12.4,   12.7,   11.6,  999.0,    8.9,    9.7,  999.0,  999.0,    6.1,    5.5,    4.3,    2.8,    0.9,    0.4,   -0.1,   -0.1,   -0.1,   -0.1,   -0.0,   -0.0,    0.0,    0.2,    0.1,    0.3,    0.5,    0.1,    0.0,    0.0,   -0.1,   -0.2,   -0.0,   -0.1,   -0.2,    0.0,    0.0,   -0.1,    0.0,    0.0,    0.0,   -0.0,   -0.0,    0.0,    0.0,   -0.1,   -0.2,  999.0,  999.0,  999.0,  999.0,  999.0,  999.0,  999.0,  999.0,  999.0,  999.0,  999.0,  999.0,  999.0,  999.0,  999.0,  999.0,  999.0,  999.0,  999.0,  999.0,  999.0,  999.0,    0.1,  999.0,    0.1,  999.0,  999.0,  999.0,  999.0,  999.0,  999.0,  999.0
2011/02/22 15:10,    1.8,    1.6,    2.0,    2.3,    3.9,    5.6,    7.4,    8.1,  999.0,  999.0,    3.2,    3.1,    8.9,    6.5,    7.1,   14.0,   10.2,   11.9,   11.1,  999.0,   13.2,   13.1,   11.7,    9.7,  999.0,  999.0,  999.0,    9.0,  999.0,  999.0,  999.0,  999.0,  999.0,  999.0,    0.0,   -0.1,   -0.0,   -0.1,   -0.1,   -0.1,    0.0,   -0.0,    0.1,    0.0,    0.1,    0.0,    0.1,    0.1,    0.0,   -0.0,   -0.1,    0.0,   -0.1,   -0.0,   -0.0,    0.0,    0.0,   -0.0,   -0.0,    0.0,   -0.0,   -0.0,    0.0,   -0.1,   -0.2,   -0.1,    0.1,  999.0,   -0.2,  999.0,  999.0,  999.0,  999.0,  999.0,  999.0,  999.0,  999.0,  999.0,  999.0,  999.0,  999.0,  999.0,  999.0,  999.0,  999.0,  999.0,  999.0,    0.0,    0.1,  999.0,    0.0,   -0.0,    0.2,  999.0,  999.0,  999.0,  999.0,  999.0
2011/02/22 15:20,    2.0,    2.1,    2.1,    4.0,    5.3,    6.4,    7.5,  999.0,  999.0,  999.0,  999.0,  999.0,    1.7,    3.5,    2.4,  999.0,    1.1,    5.4,    6.5,    7.8,    3.3,    9.6,    7.6,    8.6,  999.0,  999.0,  999.0,  999.0,  999.0,  999.0,  999.0,    4.7,  999.0,  999.0,  999.0,   -0.2,    0.0,   -0.0,  999.0,    0.0,   -0.1,    0.0,    0.1,    0.0,    0.0,   -0.1,    0.0,   -0.0,   -0.0,   -0.0,   -0.0,   -0.0,   -0.0,   -0.2,   -0.2,   -0.2,    0.1,   -0.0,   -0.3,   -0.3,   -0.1,  999.0,  999.0,   -0.1,  999.0,   -0.0,  999.0,  999.0,  999.0,  999.0,  999.0,  999.0,  999.0,  999.0,  999.0,  999.0,  999.0,  999.0,  999.0,  999.0,  999.0,  999.0,  999.0,  999.0,  999.0,  999.0,  999.0,  999.0,  999.0,  999.0,  999.0,  999.0,  999.0,  999.0,  999.0,  999.0,  999.0,  999.0
2011/02/22 15:30,    2.0,    2.9,    3.3,    4.1,    5.4,    6.6,    8.5,   10.1,   11.6,   13.3,   13.5,   13.0,   12.9,   13.8,   14.5,   14.5,   14.8,   15.8,  999.0,   14.3,   14.3,   14.4,   13.2,   12.0,   12.7,  999.0,    9.2,    9.0,  999.0,    5.1,    3.9,    1.8,  999.0,  999.0,  999.0,   -0.5,   -0.2,   -0.1,   -0.1,    0.0,   -0.1,    0.1,    0.2,   -0.0,   -0.4,   -0.3,   -0.2,   -0.4,    0.3,   -0.1,    0.3,    0.1,   -0.0,    0.0,    0.0,   -0.2,   -0.3,   -0.5,   -0.5,   -0.6,  999.0,  999.0,  999.0,  999.0,  999.0,  999.0,  999.0,   -9.6,  999.0,  999.0,  999.0,  999.0,  999.0,  999.0,  999.0,  999.0,  999.0,  999.0,  999.0,  999.0,  999.0,  999.0,  999.0,  999.0,  999.0,  999.0,  999.0,  999.0,  999.0,  999.0,  999.0,  999.0,  999.0,  999.0,  999.0,  999.0,  999.0,  999.0
2011/02/22 15:40,    2.6,    3.4,    3.2,    4.6,    5.6,    6.8,    8.7,   10.7,   12.8,  999.0,  999.0,   10.9,    9.4,   12.6,   11.7,   12.4,   11.4,   14.0,   13.5,   14.0,   14.2,   14.4,   13.8,   12.8,   13.6,  999.0,    9.7,    8.5,    6.9,    5.2,    4.1,    2.2,  999.0,  999.0,  999.0,  999.0,  999.0,  999.0,  999.0,   -0.1,    0.1,   -0.0,   -0.0,  999.0,    4.5,    4.4,    4.0,    2.8,  999.0,    0.6,    0.8,    0.5,    0.2,    0.1,   -0.1,   -0.3,   -0.8,   -0.8,   -0.6,   -0.7,   -0.8,   -1.8,  999.0,  999.0,  999.0,  999.0,  999.0,  999.0,  999.0,  999.0,  999.0,  999.0,  999.0,  999.0,  999.0,  999.0,  999.0,  999.0,  999.0,  999.0,  999.0,  -10.7,  999.0,  999.0,  999.0,  999.0,  999.0,  999.0,  999.0,  999.0,  999.0,  999.0,  999.0,  999.0,  999.0,  999.0,  999.0,  999.0
2011/02/22 15:50,    2.5,    3.4,    3.5,    3.8,    5.1,    6.9,  999.0,  999.0,  999.0,  999.0,  999.0,  999.0,  999.0,  999.0,    8.7,  999.0,   10.5,   10.7,   13.7,  999.0,   14.3,   13.7,  999.0,   13.7,  999.0,  999.0,  999.0,  999.0,    7.4,  999.0,  999.0,  999.0,  999.0,  999.0,  999.0,    1.4,    1.2,    1.6,    1.8,    1.4,    1.7,    1.1,    2.6,  999.0,  999.0,  999.0,   -0.0,    0.1,    0.1,    0.0,   -0.2,    0.2,    0.1,    0.5,   -0.3,   -0.7,   -1.6,   -0.0,   -0.2,   -0.5,   -2.9,   -1.1,  999.0,  999.0,  999.0,  999.0,  999.0,  999.0,  999.0,  999.0,  999.0,  999.0,  999.0,  999.0,  999.0,  999.0,  999.0,  999.0,  999.0,  999.0,  999.0,  999.0,  999.0,  999.0,  999.0,  999.0,  999.0,  999.0,  999.0,  999.0,  999.0,  999.0,  999.0,  999.0,  999.0,  999.0,  999.0,  999.0
2011/02/22 16:00,    3.0,    3.0,  999.0,    3.3,    4.2,    6.6,  999.0,  999.0,  999.0,  999.0,  999.0,  999.0,   13.3,   13.3,   11.8,   13.5,   12.5,   13.1,   14.6,   13.1,   14.1,  999.0,  999.0,  999.0,  999.0,  999.0,  999.0,  999.0,  999.0,    6.9,    5.8,    5.5,  999.0,   -1.1,   -1.4,   -1.3,    0.7,   -0.3,   -0.1,   -0.2,   -0.6,    0.0,    0.0,  999.0,  999.0,   -0.8,  999.0,    0.1,   -0.0,   -0.1,   -0.4,    0.1,    0.4,    0.3,   -0.1,    0.1,   -0.2,   -0.2,   -0.1,   -0.1,   -0.2,    0.0,  999.0,  999.0,  999.0,  999.0,  999.0,  999.0,  999.0,  999.0,  999.0,  999.0,  999.0,  999.0,  999.0,  999.0,  999.0,  999.0,  999.0,  999.0,  999.0,  999.0,  999.0,  999.0,  999.0,  999.0,  999.0,  999.0,  999.0,  999.0,  999.0,  999.0,  999.0,  999.0,  999.0,  999.0,  999.0,  999.0
2011/02/22 16:10,    3.1,    4.0,    2.8,    3.3,    4.4,    6.5,    8.1,    7.9,    8.8,   10.1,   10.8,   11.4,   12.9,   13.6,  999.0,   11.0,   10.8,   11.2,   11.2,    9.5,    9.8,   11.7,    9.8,  999.0,  999.0,  999.0,  999.0,  999.0,  999.0,  999.0,  999.0,  999.0,  999.0,  999.0,  999.0,  999.0,  999.0,  999.0,  999.0,  999.0,  999.0,  999.0,  999.0,  999.0,  999.0,  999.0,    0.1,    0.3,    0.1,   -0.1,   -0.5,   -0.3,   -0.1,   -0.0,    0.0,   -0.2,    0.0,   -0.1,   -0.0,   -0.2,    0.0,    0.0,  999.0,  999.0,  999.0,  999.0,  999.0,  999.0,  999.0,  999.0,  999.0,  999.0,  999.0,  999.0,  999.0,  999.0,  999.0,  999.0,  999.0,  999.0,  999.0,  999.0,  999.0,  999.0,  999.0,  999.0,  999.0,  999.0,  999.0,  999.0,  999.0,  999.0,  999.0,  999.0,  999.0,  999.0,  999.0,  999.0
2011/02/22 16:20,    3.3,    3.7,    3.1,    3.9,    5.0,    6.8,    8.8,   10.8,   11.8,   12.3,   12.8,   13.0,   13.1,   12.9,   13.7,   14.2,   14.6,   14.5,   15.1,   16.1,   16.5,   14.8,   14.1,   13.0,   13.6,  999.0,  999.0,  999.0,  999.0,    6.8,    5.6,    2.9,    0.8,  999.0,   -2.8,  999.0,  999.0,  999.0,   -0.5,   -0.6,   -0.1,    0.3,    0.4,    0.2,   -0.3,   -0.1,    0.3,    0.1,   -0.1,   -0.6,   -0.5,   -0.4,   -0.6,   -0.4,   -0.6,   -0.2,   -0.1,    0.0,   -0.0,    0.0,    0.0,   -0.1,  999.0,  999.0,  999.0,  999.0,  999.0,  999.0,  999.0,  999.0,  999.0,  999.0,  999.0,  999.0,  999.0,  999.0,  999.0,  999.0,  999.0,  999.0,  999.0,  999.0,  999.0,  999.0,  999.0,  999.0,  999.0,  999.0,  999.0,  999.0,  999.0,  999.0,  999.0,  999.0,  999.0,  999.0,  999.0,  999.0
2011/02/22 16:30,    3.4,    4.1,    3.6,    4.2,    5.5,    7.4,    9.6,   10.8,   11.8,   12.3,   12.9,   13.2,   13.2,   14.1,   14.4,   14.5,   14.7,   14.8,   15.7,  999.0,  999.0,  999.0,   15.5,  999.0,   13.4,  999.0,  999.0,  999.0,  999.0,    6.5,    5.4,    3.8,  999.0,  999.0,  999.0,  999.0,    0.0,   -0.3,   -0.6,   -0.4,   -0.5,    0.2,    0.2,    0.2,   -0.3,    0.0,   -0.2,    0.0,    0.2,    0.1,   -0.1,   -0.1,   -0.2,   -0.2,   -0.2,   -0.2,    0.0,   -0.0,   -0.0,   -0.1,   -0.1,    0.0,  999.0,  999.0,  999.0,  999.0,  999.0,  999.0,  999.0,  999.0,  999.0,  999.0,  999.0,  999.0,  999.0,  999.0,  999.0,  999.0,  999.0,  999.0,  999.0,  999.0,  999.0,  999.0,  999.0,  999.0,  999.0,  999.0,  999.0,   -0.0,    0.0,  999.0,  999.0,  999.0,  999.0,  999.0,  999.0,  999.0
2011/02/22 16:40,    3.6,    4.0,    3.1,    4.6,    5.8,    7.8,    9.5,   11.1,   11.4,   12.3,   12.7,   12.9,   13.2,   14.0,   14.4,   14.7,   14.7,   14.4,  999.0,  999.0,   16.9,  999.0,   16.1,   14.1,   13.5,  999.0,  999.0,  999.0,    7.3,    6.5,    5.2,  999.0,  999.0,  999.0,  999.0,  999.0,   -1.0,   -0.2,   -0.2,   -0.5,   -0.4,    0.4,    0.2,   -0.5,   -0.2,    0.1,    0.7,    0.1,   -0.2,   -0.6,   -1.9,   -1.5,   -1.3,   -1.0,   -1.4,   -1.9,   -0.0,   -1.7,   -1.7,    0.2,   -0.0,   -0.2,  999.0,  999.0,  999.0,  999.0,  999.0,  999.0,  999.0,  999.0,  999.0,  999.0,  999.0,  999.0,  999.0,  999.0,  999.0,  999.0,  999.0,  999.0,  999.0,  999.0,  999.0,  999.0,  999.0,  999.0,  999.0,  999.0,  999.0,  999.0,  999.0,  999.0,  999.0,  999.0,  999.0,  999.0,  999.0,  999.0
2011/02/22 16:50,    2.8,    4.1,    3.9,    4.9,    6.3,    7.3,    8.2,   10.1,   11.1,   12.0,   12.8,   12.9,   13.1,   13.9,   14.3,   14.5,   14.8,   14.2,  999.0,  999.0,   16.2,  999.0,   16.4,   14.1,   13.2,   14.1,   14.0,  999.0,  999.0,    6.7,    4.4,    1.2,   -0.2,   -1.7,   -3.0,  999.0,   -1.0,   -0.2,   -0.0,   -0.1,    0.3,    0.4,    0.2,    0.1,    0.0,    0.1,   -0.2,   -0.4,   -0.6,   -2.4,   -3.3,   -3.5,   -3.8,   -4.5,   -5.6,   -6.0,   -6.3,   -6.8,   -7.0,  999.0,  999.0,  999.0,  999.0,  999.0,  999.0,  999.0,  999.0,  999.0,  999.0,  999.0,  999.0,  999.0,  999.0,  999.0,  999.0,  999.0,  999.0,  999.0,  999.0,  999.0,  999.0,  999.0,  999.0,  999.0,  999.0,  999.0,  999.0,  999.0,  999.0,  999.0,  999.0,  999.0,  999.0,  999.0,  999.0,  999.0,  999.0,  999.0
2011/02/22 17:00,    3.1,    3.4,    3.8,    5.0,    5.8,    7.4,    7.9,    9.4,   10.7,   11.7,   12.7,   12.8,   12.9,   13.8,   13.9,   14.5,   13.6,  999.0,   16.5,   17.8,   17.4,   16.3,   15.3,   14.7,   13.8,   14.1,  999.0,    8.3,    7.4,    6.4,    3.1,    1.5,   -0.1,   -2.4,   -3.5,  999.0,  999.0,   -0.6,   -0.6,   -0.0,    0.5,    0.2,   -0.0,   -0.8,   -0.3,  999.0,  999.0,    0.0,   -1.2,   -2.5,   -3.4,   -3.8,   -4.2,   -5.2,   -6.3,   -6.7,   -6.8,   -6.9,   -7.2,   -7.4,  999.0,  999.0,  999.0,  999.0,  999.0,  999.0,  999.0,  999.0,  999.0,  999.0,  999.0,  999.0,  999.0,  999.0,  999.0,  999.0,  999.0,  999.0,  999.0,  999.0,  999.0,  999.0,  999.0,  999.0,  999.0,  999.0,  999.0,  999.0,  999.0,  999.0,  999.0,  999.0,  999.0,  999.0,  999.0,  999.0,  999.0,  999.0
2011/02/22 17:10,  999.0,    3.0,    3.9,    4.9,    6.2,    7.2,    8.7,   10.0,   10.9,   11.7,   12.3,   12.5,   12.7,   13.3,   14.0,   14.0,   13.9,   15.2,   16.7,   17.5,   17.0,  999.0,   16.5,   14.5,   13.5,   14.5,  999.0,  999.0,    6.9,    6.2,  999.0,  999.0,  999.0,  999.0,  999.0,  999.0,  999.0,  999.0,    3.4,  999.0,  999.0,    5.4,  999.0,  999.0,  999.0,  999.0,  999.0,    0.3,   -3.0,   -3.8,   -3.6,   -3.6,   -4.5,   -6.0,   -6.4,   -6.3,   -6.3,   -6.2,   -6.2,   -6.3,   -7.5,  999.0,  999.0,  999.0,  999.0,  999.0,  999.0,  999.0,  999.0,  999.0,  999.0,  999.0,  999.0,  999.0,  999.0,  999.0,  999.0,  999.0,  999.0,  999.0,  999.0,  999.0,  999.0,  999.0,  999.0,  999.0,  999.0,  999.0,  999.0,    0.0,  999.0,  999.0,  999.0,  999.0,  999.0,  999.0,  999.0,  999.0
2011/02/22 17:20,    2.5,    3.2,    4.2,    4.9,    6.5,    7.7,    8.8,    9.5,   10.6,   11.4,   12.3,   12.5,   12.2,   12.6,   13.8,   14.0,   14.2,   14.9,   15.6,   16.8,   17.2,  999.0,  999.0,  999.0,    5.9,  999.0,  999.0,  999.0,    5.9,  999.0,  999.0,  999.0,  999.0,   -1.1,  999.0,  999.0,  999.0,   -0.1,   -0.1,    0.0,    0.3,    0.2,   -0.0,   -1.3,   -0.4,  999.0,    0.4,   -0.6,   -1.9,   -3.2,   -3.6,   -3.8,   -4.8,   -6.2,   -6.5,   -6.8,   -7.1,   -7.1,  999.0,  999.0,   -8.1,   -8.6,   -8.3,   -8.2,  999.0,   -8.3,  999.0,  999.0,  999.0,  999.0,  999.0,  999.0,  999.0,  999.0,  999.0,  999.0,  999.0,  999.0,  999.0,  999.0,  999.0,  999.0,  999.0,  999.0,  999.0,  999.0,  999.0,  999.0,  999.0,  999.0,  999.0,  999.0,  999.0,  999.0,  999.0,  999.0,  999.0,  999.0
2011/02/22 17:30,    1.1,    3.8,    3.6,    4.7,    6.0,    7.0,    8.1,    9.3,   10.3,   11.1,   12.1,   12.8,   12.7,   13.3,   13.7,   14.2,   14.3,   14.8,   15.7,   16.8,   17.3,   16.3,   16.2,   14.8,   14.0,  999.0,  999.0,  999.0,    5.3,    5.5,    1.7,    0.9,  999.0,  999.0,  999.0,  999.0,  999.0,   -0.8,   -0.2,    0.3,  999.0,   -0.8,   -0.6,   -1.2,  999.0,  999.0,    0.1,   -1.0,   -2.5,  999.0,   -3.3,   -3.3,   -4.1,   -5.8,   -6.8,   -7.1,   -6.9,   -7.4,   -7.9,   -8.5,   -9.0,   -8.7,   -8.5,   -8.5,   -7.8,   -7.9,   -7.8,  999.0,  999.0,  999.0,  999.0,  999.0,  999.0,  999.0,  999.0,  999.0,  999.0,  999.0,  999.0,  999.0,  999.0,  999.0,  999.0,  999.0,  999.0,  999.0,  999.0,  999.0,  999.0,  999.0,  999.0,  999.0,  999.0,  999.0,  999.0,  999.0,  999.0,  999.0
2011/02/22 17:40,  999.0,    3.5,    3.9,    4.7,    5.9,    7.4,    8.3,    9.3,   10.4,   10.9,   11.8,   12.3,   12.5,   12.8,   13.4,   13.9,   14.5,   15.6,   17.0,   16.8,   17.2,   16.8,   16.3,   15.4,   13.1,   13.3,  999.0,  999.0,    6.2,    4.9,    2.5,    1.5,  999.0,  999.0,  999.0,  999.0,  999.0,   -0.1,   -0.2,    0.9,    0.4,  999.0,   -0.6,  999.0,    0.9,  999.0,  999.0,   -1.2,   -1.7,   -0.7,  999.0,  999.0,  999.0,  999.0,  999.0,  999.0,   -7.3,   -8.0,   -8.9,   -8.6,   -8.6,   -8.5,   -8.2,   -8.6,   -9.2,   -9.2,   -8.9,  999.0,  999.0,  999.0,  999.0,  999.0,  999.0,  999.0,  999.0,  999.0,  999.0,  999.0,  999.0,  999.0,  999.0,  999.0,  999.0,  999.0,  999.0,  999.0,  999.0,  999.0,  999.0,  999.0,  999.0,  999.0,  999.0,  999.0,  999.0,  999.0,  999.0,   -0.1
2011/02/22 17:50,  999.0,  999.0,  999.0,    5.7,    7.0,    7.8,    8.5,    9.4,    9.9,   10.6,   11.6,   12.3,   12.4,   12.8,   13.5,   14.2,   14.4,   15.5,  999.0,  999.0,   17.4,   17.8,   16.8,   15.3,   14.0,   12.9,   11.6,  999.0,  999.0,    4.8,    2.6,    1.6,  999.0,  999.0,  999.0,  999.0,  999.0,  999.0,   -0.1,    0.7,    1.0,    1.1,  999.0,  999.0,    0.3,    1.3,    0.7,   -0.7,   -1.2,   -0.6,  999.0,   -1.8,  999.0,  999.0,  999.0,  999.0,  999.0,  999.0,  999.0,  999.0,  999.0,  999.0,   -8.4,   -8.3,   -8.8,   -8.5,  999.0,  999.0,  999.0,  999.0,  999.0,  999.0,  999.0,  999.0,  999.0,  999.0,  999.0,  999.0,  999.0,  999.0,  999.0,  999.0,  999.0,  999.0,  999.0,  999.0,  999.0,  999.0,  999.0,   -0.1,  999.0,  999.0,  999.0,  999.0,  999.0,  999.0,  999.0,   -0.0
2011/02/22 18:00,  999.0,    2.9,    3.5,    5.1,    6.4,    7.3,    7.8,    8.5,    9.0,    9.8,   10.7,   11.5,   12.0,   12.3,   13.0,   13.5,   14.5,   15.8,  999.0,   17.6,  999.0,   16.6,   16.8,  999.0,   14.7,  999.0,   12.3,  999.0,  999.0,    3.9,    3.0,    1.7,   -1.1,  999.0,  999.0,  999.0,  999.0,   -2.0,   -1.8,   -0.3,    1.2,    0.7,  999.0,    0.0,    1.2,    1.7,    0.3,   -0.9,   -1.1,  999.0,  999.0,   -0.2,  999.0,   -0.1,    0.0,    0.0,  999.0,  999.0,  999.0,  999.0,  999.0,  999.0,  999.0,  999.0,  999.0,  999.0,  999.0,  999.0,  999.0,  999.0,  999.0,  999.0,  999.0,  999.0,  999.0,  999.0,  999.0,  999.0,  999.0,  999.0,  999.0,  999.0,  999.0,  999.0,  999.0,  999.0,  999.0,  999.0,  999.0,   -0.1,  999.0,  999.0,  999.0,  999.0,  999.0,  999.0,  999.0,  999.0
2011/02/22 18:10,  999.0,    3.2,    3.6,    4.5,    5.8,    6.5,    7.4,    8.1,    8.9,    8.7,    9.8,   11.0,   11.8,   12.6,   13.2,   14.3,   15.1,   16.8,   16.9,   17.9,   16.9,   17.1,   15.7,   16.3,   16.7,  999.0,  999.0,  999.0,  999.0,  999.0,  999.0,    2.2,    0.4,   -1.3,   -2.5,  999.0,  999.0,  999.0,   -1.2,   -1.2,    0.5,    0.3,    0.9,    0.2,    0.8,    0.6,    0.0,   -0.5,   -0.8,   -0.2,   -0.0,   -0.1,   -0.1,    0.0,   -0.0,    0.1,   -0.2,   -0.0,   -0.0,    0.0,   -0.1,  999.0,  999.0,  999.0,  999.0,  999.0,  999.0,  999.0,  999.0,  999.0,  999.0,  999.0,  999.0,  999.0,  999.0,  999.0,  999.0,  999.0,  999.0,  999.0,  999.0,  999.0,  999.0,  999.0,  999.0,  999.0,  999.0,  999.0,  999.0,  999.0,  999.0,  999.0,  999.0,  999.0,  999.0,  999.0,  999.0,  999.0
2011/02/22 18:20,    3.1,    3.7,    4.0,    4.4,    5.5,    6.5,    7.4,    8.3,    8.8,    9.6,   10.4,   11.3,   12.6,  999.0,   14.1,  999.0,   17.0,   17.0,   17.1,   17.2,   16.5,   16.0,   16.2,   16.5,   17.2,   15.1,  999.0,  999.0,  999.0,  999.0,  999.0,    2.2,    0.6,   -0.2,   -1.5,  999.0,  999.0,  999.0,  999.0,   -1.8,    0.1,    1.0,  999.0,    0.9,    0.2,    0.5,    0.8,    0.2,   -0.2,   -0.4,    0.0,   -0.0,   -0.1,    0.0,  999.0,  999.0,  999.0,   -4.6,   -4.8,   -5.1,  999.0,  -11.0,  999.0,  999.0,  999.0,  999.0,  999.0,  999.0,  999.0,  999.0,  999.0,  999.0,  999.0,  999.0,  999.0,  999.0,  999.0,  999.0,  999.0,  999.0,  999.0,  999.0,  999.0,  999.0,  999.0,  999.0,  999.0,  999.0,  999.0,  999.0,  999.0,  999.0,  999.0,  999.0,  999.0,  999.0,  999.0,  999.0
2011/02/22 18:30,    3.5,    3.4,    4.3,    4.4,    5.6,    6.4,    7.2,    8.1,    8.7,    9.9,   10.8,   11.9,   13.5,  999.0,   15.8,   16.7,   16.8,   17.3,   16.8,   17.1,   15.5,   16.2,   15.8,   15.9,   17.0,   14.4,  999.0,  999.0,    7.5,    5.7,    4.5,    3.2,    2.0,    1.0,   -0.4,   -2.0,  999.0,  999.0,  999.0,   -0.9,    0.9,    1.3,  999.0,    0.2,    0.7,    0.8,  999.0,   -0.2,   -0.2,   -0.0,   -0.1,   -0.1,   -0.3,  999.0,  999.0,   -4.0,  999.0,   -8.3,   -8.6,   -8.7,   -9.4,  999.0,  999.0,  999.0,  999.0,  999.0,  999.0,  999.0,  999.0,  999.0,  999.0,  999.0,  999.0,  999.0,  999.0,  999.0,  999.0,  999.0,  999.0,  999.0,  999.0,  999.0,  999.0,  999.0,  999.0,  999.0,  999.0,  999.0,  999.0,  999.0,  999.0,  999.0,  999.0,  999.0,  999.0,  999.0,  999.0,  999.0
2011/02/22 18:40,  999.0,  999.0,    4.6,    5.3,    6.1,    7.0,    7.8,    8.4,    9.6,   10.9,   12.1,   13.3,   14.2,   15.4,   16.4,   16.9,   16.9,   16.5,   17.1,   16.5,   15.7,   16.3,   15.4,   15.2,   15.6,   14.4,  999.0,  999.0,  999.0,    7.4,    4.8,    3.4,    2.1,    1.2,    0.6,   -1.1,  999.0,  999.0,  999.0,   -1.3,    0.3,    1.6,  999.0,    0.2,    0.1,    0.5,    0.1,   -0.8,   -0.9,   -0.1,   -0.1,   -0.1,    0.0,  999.0,  999.0,   -4.7,   -5.4,   -6.0,   -6.3,   -5.7,  999.0,  999.0,  999.0,  999.0,  999.0,  999.0,  999.0,  999.0,  999.0,  999.0,  999.0,  999.0,  999.0,  999.0,  999.0,  999.0,  999.0,  999.0,  999.0,  999.0,  999.0,  999.0,  999.0,  999.0,  999.0,  999.0,  999.0,  999.0,  999.0,  999.0,  999.0,  999.0,  999.0,  999.0,  999.0,  999.0,  999.0,  999.0
2011/02/22 18:50,  999.0,    4.1,    4.7,    5.7,    6.7,    7.7,    8.5,    9.4,   10.4,   11.5,   12.6,   13.6,   14.2,   15.2,   16.0,   16.2,   16.8,   17.0,   16.3,   16.5,   16.5,   17.1,   15.6,   15.5,   14.1,  999.0,  999.0,    9.7,  999.0,    5.6,    4.1,    3.3,    1.7,    1.1,   -0.3,  999.0,  999.0,   -0.3,  999.0,   -1.1,    0.1,    1.4,    0.2,    0.9,    0.2,    1.2,    0.2,   -0.2,   -0.7,   -0.3,   -0.1,    0.1,   -0.0,   -0.8,   -3.8,   -4.3,   -5.0,   -5.2,   -5.6,   -5.8,  999.0,  999.0,  999.0,  999.0,  999.0,  999.0,  999.0,  999.0,  999.0,  999.0,  999.0,  999.0,  999.0,  999.0,  999.0,  999.0,  999.0,  999.0,  999.0,  999.0,  999.0,  999.0,  999.0,  999.0,  999.0,  999.0,  999.0,  999.0,  999.0,  999.0,  999.0,  999.0,  999.0,  999.0,  999.0,  999.0,  999.0,  999.0
2011/02/22 19:00,  999.0,  999.0,    4.9,    5.4,    6.3,    6.7,    7.8,    8.8,    9.8,   10.7,   12.1,   13.0,   13.9,   14.7,   15.4,   15.9,   16.8,   16.1,   16.0,   16.2,   16.2,   16.0,   14.1,  999.0,  999.0,  999.0,  999.0,  999.0,  999.0,    5.4,    5.0,    3.6,    2.8,    1.9,    0.1,   -0.1,  999.0,  999.0,    0.0,   -0.8,   -0.1,    0.9,    0.2,  999.0,   -0.0,    1.9,    1.5,   -0.4,   -1.0,   -0.9,    0.1,   -0.0,   -0.0,  999.0,   -3.5,   -4.5,   -5.0,  999.0,   -4.6,   -4.9,   -5.3,  999.0,  999.0,  999.0,  999.0,  999.0,  999.0,  999.0,  999.0,  999.0,  999.0,  999.0,  999.0,  999.0,  999.0,  999.0,  999.0,  999.0,  999.0,  999.0,  999.0,  999.0,  999.0,  999.0,  999.0,  999.0,  999.0,  999.0,  999.0,  999.0,  999.0,  999.0,  999.0,  999.0,  999.0,  999.0,  999.0,  999.0
2011/02/22 19:10,  999.0,  999.0,    4.8,    5.6,    6.0,    6.8,    7.8,    9.2,   10.1,   11.0,   12.0,   12.9,   13.6,   14.6,   15.2,   15.7,   16.7,   16.3,   15.5,   15.5,   15.9,  999.0,   12.2,   11.6,   12.1,   12.1,   11.8,  999.0,    8.4,    5.8,    4.8,  999.0,  999.0,    2.1,    1.2,  999.0,  999.0,  999.0,   -0.1,   -0.8,   -0.3,    0.8,  999.0,    0.2,    0.6,  999.0,    0.9,   -0.1,   -0.6,   -0.2,    0.0,   -0.0,   -0.1,   -0.1,   -1.0,   -1.0,   -0.0,   -0.3,  999.0,   -3.3,  999.0,  999.0,  999.0,  999.0,  999.0,  999.0,  999.0,  999.0,  999.0,  999.0,  999.0,  999.0,  999.0,  999.0,  999.0,   -9.8,  999.0,  999.0,  999.0,  999.0,  999.0,  999.0,  999.0,  999.0,  999.0,  999.0,  999.0,  999.0,  999.0,  999.0,  999.0,  999.0,  999.0,  999.0,  999.0,  999.0,  999.0,  999.0
2011/02/22 19:20,  999.0,  999.0,    5.4,    6.0,    7.1,    8.5,    9.4,   10.1,   11.1,   12.3,   13.0,   13.5,   14.6,   14.7,   15.4,   16.2,   16.3,   15.4,   14.7,   14.4,   15.2,   12.8,   12.4,   10.9,   10.8,   11.4,   11.0,  999.0,  999.0,  999.0,    4.0,    2.6,    2.1,    1.3,    0.9,   -0.3,   -2.4,  999.0,  999.0,  999.0,   -0.6,   -0.1,    0.4,    0.1,    0.5,    0.6,    1.0,   -0.1,   -0.4,   -0.4,    0.0,   -0.1,   -0.4,   -0.2,    0.0,   -0.0,   -0.0,   -0.2,   -0.0,   -0.1,    0.0,  999.0,  999.0,  999.0,  999.0,  999.0,   -7.4,   -7.6,  999.0,  999.0,  999.0,  999.0,  999.0,  999.0,  999.0,   -9.8,  999.0,  999.0,  999.0,  999.0,  999.0,  999.0,  999.0,  999.0,  999.0,  999.0,  999.0,  999.0,  999.0,  999.0,  999.0,  999.0,  999.0,  999.0,  999.0,  999.0,  999.0,  999.0
2011/02/22 19:30,  999.0,  999.0,    5.5,    6.3,    7.5,    8.7,    9.6,   10.3,   11.2,   12.1,   12.8,   13.5,   14.6,   14.4,   15.1,   15.9,   16.3,   14.6,   14.6,   14.3,   14.0,   12.9,   13.2,   12.3,   11.1,  999.0,  999.0,   10.0,  999.0,  999.0,    3.4,    2.5,    1.4,    0.2,   -0.4,   -1.9,   -2.9,   -2.9,   -2.1,  999.0,   -0.6,    0.4,    1.0,    0.1,    0.6,    1.6,    1.4,    0.0,   -0.3,   -0.4,   -0.1,   -0.0,   -0.1,    0.1,    0.1,    0.0,   -0.0,   -0.0,   -0.1,   -0.0,   -0.0,  999.0,  999.0,  999.0,  999.0,  999.0,   -7.5,  999.0,  999.0,  999.0,  999.0,  999.0,  999.0,  999.0,  999.0,   -9.9,  999.0,  999.0,  999.0,  999.0,  999.0,  999.0,  999.0,  999.0,  999.0,  999.0,  999.0,  999.0,  999.0,  999.0,  999.0,  999.0,  999.0,  999.0,  999.0,  999.0,  999.0,  999.0
2011/02/22 19:40,  999.0,  999.0,    6.0,    6.7,    7.9,    8.5,    9.5,   10.1,   10.9,   12.0,   12.9,   14.2,   14.5,   14.7,   15.7,   16.2,   15.8,   15.1,   14.6,   14.6,   13.2,   13.7,   13.4,   13.0,   11.2,    9.8,  999.0,  999.0,  999.0,    4.0,    3.0,  999.0,    1.4,    0.9,   -1.0,   -2.0,   -3.0,   -3.2,   -3.6,  999.0,   -0.9,    0.3,    1.1,  999.0,  999.0,    3.2,    2.2,    0.2,   -0.4,   -0.4,   -0.1,   -0.0,   -0.0,   -0.0,    0.1,   -0.0,    0.0,    0.0,    0.0,    0.0,  999.0,  999.0,  999.0,   -8.0,   -8.4,  999.0,  999.0,  999.0,  999.0,  999.0,  999.0,  999.0,  999.0,  999.0,  999.0,  999.0,  999.0,  999.0,  999.0,  999.0,  999.0,  999.0,  999.0,  999.0,  999.0,  999.0,  999.0,  999.0,  999.0,  999.0,  999.0,  999.0,  999.0,  999.0,  999.0,  999.0,  999.0,  999.0
2011/02/22 19:50,  999.0,  999.0,  999.0,    6.7,    7.5,    8.8,    9.6,   10.0,   10.4,   11.5,   12.9,   14.2,   14.1,   14.4,   15.6,   16.1,   15.6,   14.9,   14.6,   14.1,   13.5,   14.5,   15.2,   14.6,   12.7,   11.1,   10.0,    9.2,    7.1,    4.7,    4.3,    3.8,    3.0,    2.0,    0.6,   -0.8,   -2.1,   -2.9,   -3.4,   -3.6,   -0.6,    0.0,    0.9,    1.4,    2.2,    1.9,    2.3,    0.6,   -0.2,   -0.4,  999.0,   -0.1,    0.1,    0.0,   -0.0,   -0.0,    0.0,   -0.0,    0.1,   -0.0,  999.0,   -3.3,  999.0,  999.0,   -6.9,   -6.6,  999.0,  999.0,  999.0,  999.0,  999.0,  999.0,  999.0,  999.0,  999.0,  999.0,  999.0,  999.0,  999.0,  999.0,  999.0,  999.0,  999.0,  999.0,  999.0,  999.0,  999.0,  999.0,  999.0,  999.0,  999.0,  999.0,  999.0,  999.0,  999.0,  999.0,  999.0,  999.0
2011/02/22 20:00,  999.0,  999.0,    5.0,    6.0,    7.2,    8.4,    9.0,    9.6,   10.0,   11.3,   12.8,   13.8,   13.5,   14.3,   15.5,   15.9,   15.8,   14.8,   14.7,   13.1,   13.7,   14.3,   14.1,   14.4,   13.0,   11.8,   10.5,    9.1,    7.7,    5.0,    4.2,    3.9,    3.2,    1.8,    1.2,    0.1,   -1.3,   -2.2,   -3.1,   -3.4,   -0.7,   -0.4,    0.5,    0.6,  999.0,  999.0,  999.0,    0.8,   -0.0,   -0.2,  999.0,   -0.4,   -0.6,   -0.1,   -0.1,    0.2,    0.1,    0.0,  999.0,  999.0,  999.0,   -3.9,  999.0,  999.0,   -7.4,  999.0,  999.0,  999.0,  999.0,  999.0,  999.0,  999.0,  999.0,  999.0,  999.0,  999.0,  999.0,  999.0,  999.0,  999.0,  999.0,  999.0,  999.0,  999.0,  999.0,  999.0,  999.0,  999.0,  999.0,  999.0,  999.0,  999.0,  999.0,  999.0,  999.0,  999.0,  999.0,  999.0
2011/02/22 20:10,  999.0,  999.0,    5.4,    6.1,    7.5,    8.3,    8.9,    9.1,   10.3,   11.4,   13.1,   13.5,   13.3,   14.7,   15.2,   15.2,   15.1,   13.8,   14.0,   13.1,   13.5,   13.9,   13.9,   13.7,   13.8,   13.5,   11.8,   10.4,    8.8,    7.5,    5.1,    4.9,    3.6,    1.3,    1.4,    0.9,   -0.7,   -1.5,   -2.4,   -3.0,   -0.7,   -0.0,    0.3,    0.4,    0.9,    1.1,  999.0,    1.0,    0.2,   -0.2,   -0.4,   -0.4,   -0.9,   -0.3,   -0.2,   -1.2,   -2.4,   -0.3,    0.0,    0.2,    0.0,    0.1,  999.0,  999.0,  999.0,  999.0,  999.0,  999.0,  999.0,  999.0,  999.0,  999.0,  999.0,  999.0,  999.0,  999.0,  999.0,  999.0,  999.0,  999.0,  999.0,  999.0,  999.0,  999.0,  999.0,  999.0,  999.0,  999.0,  999.0,   -0.2,  999.0,   -0.1,  999.0,  999.0,  999.0,  999.0,  999.0,  999.0
2011/02/22 20:20,  999.0,  999.0,    5.8,    6.4,    7.6,    8.5,    8.9,    9.4,   11.2,   12.6,   13.7,   13.2,   14.2,   15.6,   14.9,   15.0,   15.0,   13.5,   13.0,   12.7,   12.6,   12.5,   12.7,   12.9,   13.7,   14.2,   12.0,   10.3,    8.0,    6.6,    4.3,    4.2,  999.0,  999.0,    0.5,    0.2,   -0.2,   -0.7,   -1.6,   -2.3,   -0.5,    0.2,    0.5,    0.8,    0.7,  999.0,  999.0,   -0.1,    0.2,   -0.1,   -0.1,   -0.3,   -0.7,   -0.9,  999.0,  999.0,  999.0,  999.0,  999.0,  999.0,  999.0,  999.0,  999.0,   -6.1,   -7.0,  999.0,  999.0,  999.0,  999.0,  999.0,  999.0,  999.0,  999.0,  999.0,  999.0,  999.0,  999.0,  999.0,  999.0,  999.0,  999.0,  999.0,  999.0,  999.0,  999.0,  999.0,  999.0,  999.0,  999.0,  999.0,  999.0,  999.0,  999.0,  999.0,  999.0,  999.0,  999.0,  999.0
2011/02/22 20:30,  999.0,  999.0,  999.0,    6.4,    8.3,    8.7,    9.3,    9.4,   11.2,   12.5,   13.2,   12.9,   13.9,   14.7,   14.6,   13.6,  999.0,   13.4,   12.5,   11.9,   11.4,   11.1,   11.6,   11.6,   12.2,   12.5,   11.1,   10.2,    8.5,    7.1,    5.2,    4.4,    3.2,    0.6,  999.0,   -0.5,    0.3,    0.2,   -0.9,   -1.6,  999.0,   -0.3,    0.1,    0.5,    0.4,    0.6,  999.0,    0.0,   -0.1,   -0.5,   -0.9,   -0.8,   -0.7,   -1.1,   -4.6,   -6.8,  999.0,  999.0,  999.0,  999.0,   -8.3,  999.0,  999.0,   -6.8,  999.0,   -7.3,  999.0,  999.0,  999.0,  999.0,  999.0,  999.0,  999.0,  999.0,  999.0,  999.0,  999.0,  999.0,  999.0,  999.0,  999.0,  999.0,  999.0,  999.0,  999.0,  999.0,  999.0,  999.0,  999.0,  999.0,  999.0,  999.0,  999.0,  999.0,  999.0,  999.0,  999.0,  999.0
2011/02/22 20:40,  999.0,  999.0,  999.0,    6.5,    8.1,    8.6,    9.3,  999.0,   11.1,   12.1,   12.5,   12.8,   14.3,   14.4,   13.5,   13.2,   12.3,   11.9,   11.1,   10.6,    9.6,    9.1,    9.6,   10.1,   11.0,   11.6,   11.1,   10.3,    9.1,    7.3,    5.7,    5.4,    3.8,  999.0,  999.0,  999.0,   -0.0,   -0.1,   -1.0,   -1.4,  999.0,   -0.1,    0.8,    1.5,    1.1,  999.0,  999.0,    0.4,   -0.2,   -0.5,   -0.9,   -0.9,   -1.0,   -0.7,  999.0,  999.0,  999.0,  999.0,   -0.0,   -1.7,  999.0,  999.0,  999.0,  999.0,   -6.4,   -6.0,   -6.3,   -6.6,   -6.7,   -7.1,   -8.1,   -9.1,   -9.5,   -9.8,  -10.8,  -11.9,  -12.0,  -11.1,  -11.2,  -11.7,  -12.5,  -13.4,  -13.8,  -14.0,  -15.3,  999.0,  999.0,  999.0,  999.0,  999.0,  999.0,  999.0,  999.0,  999.0,  999.0,  999.0,  999.0,  999.0
2011/02/22 20:50,  999.0,  999.0,    5.0,    5.5,    7.5,    8.1,    8.6,    9.1,   10.5,   11.1,   12.1,   11.5,   12.4,   13.6,   13.1,   12.4,   12.2,   11.1,   10.3,    9.9,    9.1,    9.0,    9.5,    9.4,    9.5,   10.2,   11.2,   11.3,    9.8,    8.5,    6.4,    5.6,    5.7,  999.0,  999.0,  999.0,    0.3,    0.1,   -0.5,   -1.5,   -0.9,   -0.0,    1.0,    1.9,    0.1,  999.0,  999.0,    0.7,   -0.2,   -0.3,   -0.8,   -0.6,   -1.1,   -1.2,   -3.5,  999.0,  999.0,  999.0,  999.0,   -5.8,   -5.9,   -7.0,   -6.5,   -6.1,   -6.3,   -6.9,   -6.9,   -6.9,   -6.8,   -7.1,   -8.4,   -9.4,  -10.8,  -10.2,  999.0,  999.0,  999.0,  999.0,  999.0,  999.0,  999.0,  -13.8,  999.0,  999.0,  999.0,  999.0,  999.0,  999.0,  999.0,  999.0,  999.0,  999.0,  999.0,  999.0,  999.0,  999.0,  999.0,  999.0
2011/02/22 21:00,  999.0,  999.0,    5.7,    6.7,    8.0,    8.7,    9.0,    9.3,   10.1,   11.5,   12.3,   11.8,   12.9,   13.3,   13.1,   12.3,   11.2,   10.2,    9.3,    9.2,    8.7,    8.6,    9.1,    9.3,    9.3,    9.4,   10.1,   10.7,    9.8,    8.6,    7.2,    5.6,  999.0,  999.0,  999.0,  999.0,  999.0,    2.4,    1.3,    0.8,    0.7,  999.0,    3.5,    3.6,    1.9,    3.8,  999.0,  999.0,   -1.3,   -1.7,   -2.3,   -2.1,   -1.2,   -2.0,   -2.7,   -5.1,   -6.4,  999.0,   -6.0,   -7.2,   -6.7,   -6.3,   -6.7,   -6.4,   -6.6,   -6.7,   -6.4,   -6.7,   -7.4,   -8.6,   -9.5,  -10.3,  -10.7,  -12.0,  -12.0,  -11.6,  -11.4,  -11.8,  -12.6,  -13.7,  -14.1,  -14.6,  -15.0,  -15.4,  -15.8,  -16.3,  -16.4,  -16.5,  -15.6,  -15.5,  -15.8,  -15.0,  -15.1,  999.0,  999.0,  999.0,  999.0,  999.0
2011/02/22 21:10,  999.0,    5.3,    6.0,    7.4,  999.0,  999.0,    9.9,    9.7,   10.5,   11.4,   11.9,   11.6,   11.9,   11.8,   10.7,    9.8,    9.6,    9.2,    8.8,    8.0,    8.4,    9.0,    9.8,   10.3,    9.8,    9.6,    9.6,   10.1,    9.4,    7.4,    6.3,  999.0,  999.0,  999.0,  999.0,  999.0,  999.0,  999.0,  999.0,  999.0,  999.0,  999.0,  999.0,    1.8,  999.0,  999.0,  999.0,  999.0,   -0.4,   -1.9,   -2.7,   -3.1,   -3.2,   -3.1,   -4.3,   -4.7,   -6.8,  999.0,  999.0,  999.0,   -7.1,   -5.7,   -6.4,   -6.5,   -6.4,   -6.5,   -6.9,   -7.5,   -8.2,   -9.0,  -10.1,  -10.6,  -11.3,  -12.1,  -12.2,  -12.0,  -12.0,  -12.3,  -12.9,  -13.6,  -14.1,  -14.5,  -14.9,  -15.6,  -16.2,  999.0,  999.0,  999.0,  999.0,  999.0,  999.0,  999.0,  999.0,  999.0,  999.0,  999.0,  999.0,  999.0
2011/02/22 21:20,  999.0,  999.0,  999.0,    6.3,    7.6,  999.0,    9.8,    9.8,   10.6,   11.1,   11.4,   11.2,   12.1,   12.1,   11.1,    9.8,    9.3,    9.0,    9.0,    8.8,    9.1,    9.7,    9.8,    9.7,  999.0,  999.0,    4.1,  999.0,  999.0,  999.0,  999.0,  999.0,  999.0,    4.7,    3.5,    2.7,    1.6,    0.5,    1.7,    1.7,    2.4,    3.8,    2.1,    2.9,    4.6,    4.2,    2.7,    1.5,   -0.7,   -2.5,   -3.5,   -4.1,   -4.5,   -4.4,   -5.0,   -5.3,   -6.6,   -8.5,   -9.4,   -8.9,   -7.5,   -7.3,   -7.0,   -6.9,   -6.4,   -6.3,   -6.8,   -7.5,   -8.1,   -9.2,  -10.0,  -10.7,  -11.7,  -12.2,  -12.1,  -12.5,  -13.1,  -13.3,  -13.9,  -14.9,  -14.9,  -15.4,  -16.4,  999.0,  999.0,  999.0,  999.0,  999.0,  999.0,  999.0,  999.0,  999.0,  999.0,  999.0,  999.0,  999.0,  999.0,  999.0
2011/02/22 21:30,  999.0,    4.4,    5.5,    6.7,    7.7,    8.7,    9.6,   10.1,   10.9,   11.4,   11.9,   11.4,   11.8,   13.0,   13.1,   12.1,   10.8,    9.8,    9.5,    9.3,    9.1,  999.0,  999.0,  999.0,  999.0,  999.0,  999.0,  999.0,  999.0,    5.3,  999.0,  999.0,    4.7,    4.9,    3.9,    3.3,    3.2,    1.6,    1.3,    1.1,    1.5,    1.5,  999.0,    3.2,    4.8,  999.0,    2.6,    0.9,   -0.9,   -2.3,   -3.3,   -4.1,   -4.7,   -5.4,   -6.2,   -7.1,   -8.0,   -8.9,   -9.4,   -8.2,   -7.5,   -7.5,   -7.2,   -6.8,   -6.6,   -6.7,   -7.3,   -8.0,   -8.9,   -9.8,  -10.7,  -11.3,  -12.0,  -12.1,  -12.0,  -12.4,  -13.6,  -14.6,  -15.9,  -15.9,  999.0,  999.0,  999.0,  999.0,  999.0,  999.0,  999.0,  999.0,  999.0,  999.0,  999.0,  999.0,  999.0,  999.0,  999.0,  999.0,  999.0,  999.0
2011/02/22 21:40,    2.9,  999.0,  999.0,    6.6,    7.9,    9.1,   10.0,   10.7,   11.1,   11.5,   11.7,   11.8,   12.9,   13.4,   13.1,   11.4,    9.7,    9.0,    8.8,    8.2,    7.8,    7.3,    6.8,    6.5,    6.6,    6.2,    7.3,    4.3,    8.0,    7.0,    5.9,    4.5,    5.2,    4.7,    4.2,    3.1,    1.9,    0.4,    0.0,   -0.4,   -0.7,   -0.0,    2.0,  999.0,  999.0,    4.5,    2.4,    0.7,   -0.3,   -1.1,   -1.9,   -2.4,   -3.2,   -3.8,   -4.3,   -4.7,   -5.7,   -5.8,   -6.4,   -7.1,   -7.1,   -7.4,   -7.1,   -7.6,   -7.8,   -8.5,   -8.5,   -9.0,  999.0,  999.0,  -11.0,  -11.6,  999.0,  999.0,  999.0,  999.0,  999.0,  999.0,  999.0,  999.0,  999.0,  999.0,  999.0,  999.0,  999.0,  999.0,  999.0,  999.0,  999.0,  999.0,  999.0,  999.0,  999.0,  999.0,  999.0,  999.0,  999.0,  999.0
2011/02/22 21:50,    3.6,  999.0,  999.0,  999.0,  999.0,  999.0,  999.0,  999.0,  999.0,  999.0,    4.0,    3.9,    6.1,    5.7,    8.7,    9.4,    8.6,    7.8,    7.0,    6.8,    6.3,    5.7,    5.5,    5.9,    5.7,    6.4,    5.8,    6.0,    6.3,    8.1,    8.5,    7.5,    6.4,    4.8,    4.2,    2.6,    2.2,    0.6,    1.2,    0.7,    0.7,    2.1,    3.4,  999.0,  999.0,  999.0,    3.2,    1.5,    0.3,   -0.3,   -0.8,   -1.6,   -1.6,   -2.2,   -2.5,   -3.2,   -3.1,   -4.2,   -6.0,  999.0,   -6.0,   -6.3,   -6.4,   -7.0,  999.0,  999.0,  999.0,  999.0,  999.0,  999.0,  999.0,  999.0,  999.0,  999.0,  999.0,  999.0,  999.0,  999.0,  999.0,  999.0,  999.0,  999.0,  999.0,  999.0,  999.0,  999.0,  999.0,  999.0,  999.0,  999.0,  999.0,  999.0,  999.0,  999.0,  999.0,  999.0,  999.0,  999.0
2011/02/22 22:00,  999.0,  999.0,    5.2,    7.0,    7.2,    8.1,    7.7,    8.8,   10.3,   10.4,    9.9,   10.7,   11.3,   10.4,    8.3,  999.0,  999.0,    7.4,    6.5,    4.4,  999.0,    4.1,  999.0,    6.9,    5.8,    6.6,    7.6,    7.7,    8.1,    8.4,   10.3,    8.7,    7.3,    6.9,    5.9,    4.4,    2.5,    1.6,    1.6,    0.6,    0.9,    1.4,    2.2,    4.6,  999.0,  999.0,    1.8,    0.5,   -1.0,   -2.0,   -2.2,   -1.4,   -1.2,   -1.6,   -2.8,  999.0,  999.0,  999.0,   -0.2,   -0.1,   -0.1,    0.1,  999.0,  999.0,  999.0,  999.0,  999.0,  999.0,  999.0,  999.0,  999.0,  999.0,  999.0,  999.0,  999.0,  999.0,  999.0,  999.0,  999.0,  999.0,  999.0,  999.0,  999.0,  999.0,  999.0,  999.0,  999.0,  999.0,  999.0,  999.0,  999.0,  999.0,  999.0,  999.0,  999.0,  999.0,  999.0,  999.0
2011/02/22 22:10,  999.0,  999.0,  999.0,  999.0,  999.0,  999.0,  -14.8,   -8.0,   -6.3,   -5.8,  -11.8,  -23.5,  -23.0,  999.0,  999.0,  999.0,  999.0,    8.6,    8.0,    6.6,    5.2,    5.1,    6.6,    7.3,    7.9,    8.8,    9.2,    8.5,    7.3,    8.0,  999.0,  999.0,  999.0,  999.0,    4.9,    3.9,    1.9,    1.0,    1.4,    1.1,    0.8,    2.4,  999.0,  999.0,  999.0,  999.0,    0.0,   -0.5,   -0.8,   -0.6,   -0.8,   -0.2,   -2.0,   -4.2,   -4.7,   -2.9,   -3.5,  999.0,  999.0,   -0.1,  999.0,    0.1,  999.0,  999.0,  999.0,  999.0,  999.0,  999.0,  999.0,  999.0,  999.0,  999.0,  999.0,  999.0,  999.0,  999.0,  999.0,  999.0,  999.0,  999.0,  999.0,  999.0,  999.0,  999.0,  999.0,  999.0,  999.0,  999.0,  999.0,  999.0,  999.0,  999.0,  999.0,  999.0,  999.0,  999.0,  999.0,  999.0
2011/02/22 22:20,  999.0,  999.0,  999.0,  999.0,  999.0,  999.0,  -13.4,  -16.2,  -23.9,  -23.2,  -23.2,  -23.0,  -22.2,  999.0,  999.0,  999.0,  999.0,    7.8,    7.1,    6.4,    6.3,    7.2,    8.0,    8.7,    9.3,    9.6,    9.4,    8.8,    7.6,    7.9,    8.5,  999.0,    7.7,  999.0,  999.0,    4.1,  999.0,  999.0,  999.0,    0.7,   -0.1,    1.1,    0.6,  999.0,    0.1,   -0.1,    0.0,   -0.6,   -0.2,   -0.3,   -0.1,   -0.0,   -0.6,  999.0,   -1.1,   -1.4,   -1.1,    0.0,    0.1,    0.0,   -0.0,   -0.1,  999.0,  999.0,  999.0,  999.0,   -0.1,  999.0,  999.0,    0.0,  999.0,  999.0,  999.0,  999.0,  999.0,  999.0,  999.0,  999.0,  999.0,  999.0,  999.0,  999.0,  999.0,  999.0,  999.0,  999.0,  999.0,  999.0,  999.0,  999.0,  999.0,  999.0,  999.0,  999.0,  999.0,  999.0,  999.0,  999.0
2011/02/22 22:30,    4.8,  999.0,    5.6,    6.8,    7.5,    8.0,    8.5,    9.2,    9.1,   10.4,   10.2,   10.4,   10.6,   10.4,    8.4,    9.0,    7.8,    6.4,    5.4,    5.8,    6.6,  999.0,  999.0,    9.3,    9.6,  999.0,  999.0,  999.0,    6.8,    7.8,    8.9,  999.0,  999.0,  999.0,  999.0,  999.0,  999.0,  999.0,  999.0,  999.0,  999.0,    0.3,  999.0,  999.0,   -0.2,  999.0,   -0.3,   -1.5,   -0.5,   -0.1,   -0.0,   -0.0,    0.0,   -0.1,   -0.1,   -0.0,   -0.0,   -0.0,    0.0,   -0.0,    0.0,    0.1,  999.0,  999.0,  999.0,   -0.1,    0.1,  999.0,  999.0,  999.0,  999.0,  999.0,  999.0,  999.0,  999.0,  999.0,  999.0,  999.0,  999.0,  999.0,  999.0,  999.0,  999.0,  999.0,  999.0,  999.0,  999.0,  999.0,  999.0,  999.0,  999.0,  999.0,  999.0,  999.0,  999.0,  999.0,  999.0,  999.0
2011/02/22 22:40,    4.2,    5.1,    6.1,    6.7,    7.0,    7.7,    8.1,    8.8,    9.6,   11.2,   13.0,   12.6,   12.7,   12.5,   11.6,   10.8,    9.3,    7.6,    7.0,    6.2,    7.0,  999.0,    9.6,  999.0,  999.0,  999.0,  999.0,  999.0,    6.5,    7.2,    8.2,    8.6,  999.0,  999.0,  999.0,  999.0,  999.0,  999.0,  999.0,  999.0,  999.0,    0.1,  999.0,  999.0,   -0.2,    0.1,   -0.5,   -1.6,   -0.8,   -0.1,    0.1,   -0.1,    0.0,   -0.0,   -0.1,   -0.0,    0.0,   -0.0,   -0.0,   -0.4,    0.0,    0.1,  999.0,  999.0,  999.0,  999.0,  999.0,  999.0,  999.0,  999.0,  999.0,  999.0,  999.0,  999.0,  999.0,  999.0,  999.0,  999.0,  999.0,  999.0,  999.0,  999.0,  999.0,  999.0,  999.0,  999.0,  999.0,  999.0,  999.0,  999.0,  999.0,  999.0,  999.0,  999.0,  999.0,  999.0,  999.0,  999.0
2011/02/22 22:50,    4.6,    5.4,    6.0,    6.4,    7.2,    7.8,    7.8,    8.4,    9.3,   11.0,   12.8,   12.9,   13.0,   12.8,   12.7,   11.7,   10.4,    8.3,    7.6,  999.0,    7.5,    8.6,    9.5,   10.0,   10.3,   10.3,   10.1,  999.0,    6.7,    7.4,    8.5,    8.6,  999.0,  999.0,    7.1,  999.0,  999.0,  999.0,  999.0,  999.0,    0.0,    0.3,  999.0,  999.0,    0.3,  999.0,   -0.6,   -1.7,   -1.0,   -0.1,    0.0,   -0.2,   -0.1,    0.1,   -0.2,   -2.1,  999.0,  999.0,   -2.7,   -2.1,   -1.6,  999.0,  999.0,  999.0,  999.0,  999.0,  999.0,  999.0,  999.0,  999.0,  999.0,  999.0,  999.0,  999.0,  999.0,  999.0,  999.0,  999.0,  999.0,  999.0,  999.0,  999.0,  999.0,  999.0,  999.0,  999.0,  999.0,  999.0,  999.0,  999.0,  999.0,  999.0,  999.0,  999.0,  999.0,  999.0,  999.0,  999.0
2011/02/22 23:00,    4.6,    5.2,    5.9,    6.2,    6.8,    7.3,    7.4,    7.9,    8.6,   10.0,   11.7,   12.1,   12.0,   11.9,   11.3,   10.4,    9.5,    8.6,    8.0,    7.3,    7.5,    8.6,    9.5,  999.0,   10.6,   10.3,   10.0,    9.5,  999.0,    7.5,    8.4,    8.7,    8.2,    7.6,  999.0,  999.0,  999.0,  999.0,  999.0,  999.0,   -0.2,    0.2,    0.2,  999.0,    0.3,  999.0,  999.0,   -0.5,   -1.2,  999.0,   -4.3,   -4.7,   -4.9,   -5.1,   -5.4,   -6.1,   -7.4,   -8.1,   -6.9,   -5.8,   -6.2,   -7.0,   -7.5,   -8.0,   -8.3,  999.0,   -9.0,  999.0,  999.0,  999.0,  999.0,  999.0,  999.0,  999.0,  999.0,  999.0,  999.0,  999.0,  999.0,  999.0,  999.0,  999.0,  999.0,  999.0,  999.0,  999.0,  999.0,  999.0,  999.0,  999.0,  999.0,  999.0,  999.0,  999.0,  999.0,  999.0,  999.0,  999.0
2011/02/22 23:10,  999.0,    5.1,    5.6,    5.8,    6.7,    7.0,    7.4,    7.9,    8.8,   10.0,   11.3,   11.2,   10.6,   10.9,    9.9,    9.4,    9.2,    9.4,    8.8,    8.7,    8.9,    9.6,   10.3,   10.6,   11.9,  999.0,  999.0,  999.0,  999.0,  999.0,  999.0,    2.2,  999.0,  999.0,    7.5,    5.8,    3.9,    1.9,    1.3,    1.1,    0.6,    1.4,    2.6,  999.0,  999.0,  999.0,    1.2,    0.2,   -1.0,   -3.3,   -3.9,   -4.5,   -4.9,   -5.4,   -6.8,   -7.6,  999.0,   -7.6,   -6.1,   -5.7,   -5.9,   -6.9,   -7.8,  999.0,  999.0,  999.0,  999.0,  999.0,  999.0,  999.0,  999.0,  999.0,  999.0,  999.0,  999.0,  999.0,  999.0,  999.0,  999.0,  999.0,  999.0,  999.0,  999.0,  999.0,  999.0,  999.0,  999.0,  999.0,  999.0,  999.0,  999.0,  999.0,  999.0,  999.0,  999.0,  999.0,  999.0,  999.0
2011/02/22 23:20,  999.0,  999.0,    5.4,    5.9,    6.7,    7.2,    7.8,    8.3,    8.6,    9.2,   10.2,   10.0,    9.9,   10.4,   10.6,   10.3,    9.9,    9.8,   10.1,   11.3,   11.5,   12.2,   12.7,   12.5,   12.1,  999.0,  999.0,    9.6,    9.6,    8.8,    7.7,    8.5,    9.1,    7.8,    8.3,    7.0,    5.4,    3.5,    2.2,    2.0,    1.5,    1.6,    1.7,    2.1,    2.4,  999.0,  999.0,   -0.4,   -1.4,   -0.6,  999.0,   -3.4,   -3.5,   -4.3,   -5.5,   -6.1,   -8.6,   -7.1,   -6.0,   -5.5,   -6.1,  999.0,   -7.9,  999.0,  999.0,  999.0,  999.0,  999.0,  999.0,  999.0,  999.0,  999.0,  999.0,  999.0,  999.0,  999.0,  999.0,  999.0,  999.0,  999.0,  999.0,  999.0,  999.0,  999.0,  999.0,  999.0,  999.0,  999.0,  999.0,  999.0,  999.0,  999.0,  999.0,  999.0,  999.0,  999.0,  999.0,  999.0
2011/02/22 23:30,    4.2,    5.2,    5.3,    6.3,    6.8,    7.0,    8.0,    8.0,    8.5,    9.6,    9.9,    9.2,    9.6,   10.0,   10.6,   10.5,   10.1,   10.5,   10.7,   11.2,   12.5,   12.7,   12.8,  999.0,  999.0,   16.3,   16.1,   15.6,   11.8,   11.2,    8.4,    7.8,    8.1,    8.5,    8.1,    5.9,  999.0,    0.5,   -0.5,   -0.4,   -0.2,    0.5,    0.3,    1.0,    2.3,    2.1,    0.8,   -0.8,   -0.9,   -0.2,   -0.1,   -0.1,   -0.3,   -0.9,   -1.5,   -2.3,   -2.3,   -1.2,   -0.8,   -0.3,    0.1,    0.2,  999.0,  999.0,  999.0,    0.1,  999.0,    0.0,  999.0,    0.1,  999.0,  999.0,  999.0,  999.0,  999.0,  999.0,  999.0,  999.0,  999.0,  999.0,  999.0,  999.0,  999.0,  999.0,  999.0,  999.0,  999.0,   -0.2,   -0.1,  999.0,  999.0,  999.0,  999.0,  999.0,  999.0,  999.0,  999.0,  999.0
2011/02/22 23:40,  999.0,  999.0,  999.0,  999.0,  999.0,  999.0,  999.0,  999.0,  999.0,  999.0,  999.0,  999.0,  999.0,  999.0,  999.0,  999.0,  999.0,  999.0,  999.0,  999.0,  999.0,  999.0,  999.0,  999.0,  999.0,  999.0,  999.0,  999.0,  999.0,  999.0,  999.0,  999.0,  999.0,  999.0,  999.0,  999.0,  999.0,  999.0,  999.0,  999.0,  999.0,  999.0,  999.0,  999.0,  999.0,  999.0,  999.0,  999.0,  999.0,  999.0,  999.0,  999.0,  999.0,  999.0,  999.0,  999.0,  999.0,  999.0,  999.0,  999.0,  999.0,  999.0,  999.0,  999.0,  999.0,  999.0,  999.0,  999.0,  999.0,  999.0,  999.0,  999.0,  999.0,  999.0,  999.0,  999.0,  999.0,  999.0,  999.0,  999.0,  999.0,  999.0,  999.0,  999.0,  999.0,  999.0,  999.0,  999.0,  999.0,  999.0,  999.0,  999.0,  999.0,  999.0,  999.0,  999.0,  999.0,  999.0
2011/02/22 23:50,    4.0,  999.0,    5.4,    6.0,    6.6,    7.3,    8.0,    8.9,  999.0,    8.3,   10.1,    9.9,   10.1,   10.6,   11.4,   12.0,   12.5,   12.1,   12.4,   12.9,   12.6,   12.7,  999.0,   15.9,   16.5,   16.7,   15.8,  999.0,  999.0,  999.0,  999.0,  999.0,    8.1,    8.1,    7.8,    7.0,    9.1,  999.0,  999.0,  999.0,  999.0,  999.0,  999.0,  999.0,  999.0,  999.0,  999.0,   -1.1,   -2.1,   -4.4,   -2.2,   -2.6,   -2.8,   -2.5,   -3.2,  999.0,   -4.2,   -1.6,   -2.0,  999.0,  999.0,  999.0,  999.0,  999.0,  999.0,  999.0,  999.0,  999.0,  999.0,  999.0,  999.0,  999.0,  999.0,  999.0,  999.0,  999.0,  999.0,  999.0,  999.0,  999.0,  999.0,  999.0,  999.0,  999.0,  999.0,  999.0,  999.0,   -0.1,  999.0,  999.0,  999.0,  999.0,  999.0,  999.0,  999.0,  999.0,  999.0,  999.0
